Time,TemperatureF,DewpointF,PressureIn,WindDirection,WindDirectionDegrees,WindSpeedMPH,WindSpeedGustMPH,Humidity,HourlyPrecipIn,Conditions,Clouds,dailyrainin,SoftwareType,DateUTC
2013-02-13 00:00:00,26.1,7.7,30.17,South,180,0.0,4.0,45,0.00,,,0.00,meteohub,2013-02-13 07:00:00,
2013-02-13 00:02:00,25.9,7.0,30.17,South,180,0.0,3.0,44,0.00,,,0.00,meteohub,2013-02-13 07:02:00,
2013-02-13 00:05:00,25.9,7.0,30.16,South,180,0.0,3.0,44,0.00,,,0.00,meteohub,2013-02-13 07:05:00,
2013-02-13 00:06:00,25.9,7.5,30.16,South,180,0.0,2.0,45,0.00,,,0.00,meteohub,2013-02-13 07:06:00,
2013-02-13 00:08:00,25.9,7.5,30.16,South,180,0.0,2.0,45,0.00,,,0.00,meteohub,2013-02-13 07:08:00,
2013-02-13 00:10:00,26.1,7.7,30.16,NE,44,2.0,2.0,45,0.00,,,0.00,meteohub,2013-02-13 07:10:00,
2013-02-13 00:12:00,25.9,7.5,30.17,NE,44,3.0,3.0,45,0.00,,,0.00,meteohub,2013-02-13 07:12:00,
2013-02-13 00:13:00,25.9,7.5,30.17,NE,44,0.0,1.0,45,0.00,,,0.00,meteohub,2013-02-13 07:13:00,
2013-02-13 00:14:00,25.9,7.5,30.17,NE,44,2.0,2.0,45,0.00,,,0.00,meteohub,2013-02-13 07:14:00,
2013-02-13 00:16:00,25.7,7.3,30.17,NE,44,1.0,1.0,45,0.00,,,0.00,meteohub,2013-02-13 07:16:00,
2013-02-13 00:17:00,25.5,7.2,30.17,NE,45,3.0,4.0,45,0.00,,,0.00,meteohub,2013-02-13 07:17:00,
2013-02-13 00:19:00,25.5,7.7,30.17,NE,53,0.0,4.0,46,0.00,,,0.00,meteohub,2013-02-13 07:19:00,
2013-02-13 00:20:00,25.5,7.7,30.17,NE,53,0.0,4.0,46,0.00,,,0.00,meteohub,2013-02-13 07:20:00,
2013-02-13 00:21:00,25.3,7.5,30.17,NE,53,0.0,4.0,46,0.00,,,0.00,meteohub,2013-02-13 07:21:00,
2013-02-13 00:22:00,25.3,7.5,30.17,East,88,3.0,4.0,46,0.00,,,0.00,meteohub,2013-02-13 07:22:00,
2013-02-13 00:25:00,25.2,7.3,30.17,South,170,4.0,4.0,46,0.00,,,0.00,meteohub,2013-02-13 07:25:00,
2013-02-13 00:27:00,25.2,7.7,30.17,SSE,155,5.0,5.0,47,0.00,,,0.00,meteohub,2013-02-13 07:27:00,
2013-02-13 00:30:00,25.0,7.5,30.17,SSE,159,4.0,6.0,47,0.00,,,0.00,meteohub,2013-02-13 07:30:00,
2013-02-13 00:31:00,25.0,7.5,30.17,SSE,159,4.0,6.0,47,0.00,,,0.00,meteohub,2013-02-13 07:31:00,
2013-02-13 00:32:00,25.0,8.1,30.17,SSE,159,0.0,6.0,48,0.00,,,0.00,meteohub,2013-02-13 07:32:00,
2013-02-13 00:33:00,25.0,8.1,30.17,SSE,159,2.0,6.0,48,0.00,,,0.00,meteohub,2013-02-13 07:33:00,
2013-02-13 00:37:00,24.8,7.9,30.17,SSE,159,0.0,6.0,48,0.00,,,0.00,meteohub,2013-02-13 07:37:00,
2013-02-13 00:38:00,24.8,7.9,30.17,SSE,159,0.0,6.0,48,0.00,,,0.00,meteohub,2013-02-13 07:38:00,
2013-02-13 00:40:00,24.8,7.9,30.17,SSE,159,0.0,6.0,48,0.00,,,0.00,meteohub,2013-02-13 07:40:00,
2013-02-13 00:42:00,24.8,7.9,30.17,SSE,159,0.0,6.0,48,0.00,,,0.00,meteohub,2013-02-13 07:42:00,
2013-02-13 00:44:00,24.6,7.7,30.17,SSE,159,0.0,6.0,48,0.00,,,0.00,meteohub,2013-02-13 07:44:00,
2013-02-13 00:46:00,24.6,7.7,30.17,SSE,159,0.0,4.0,48,0.00,,,0.00,meteohub,2013-02-13 07:46:00,
2013-02-13 00:47:00,24.6,7.7,30.17,SSE,159,0.0,4.0,48,0.00,,,0.00,meteohub,2013-02-13 07:47:00,
2013-02-13 00:49:00,24.6,7.7,30.17,SSE,159,0.0,4.0,48,0.00,,,0.00,meteohub,2013-02-13 07:49:00,
2013-02-13 00:50:00,24.6,7.7,30.17,SSE,159,0.0,4.0,48,0.00,,,0.00,meteohub,2013-02-13 07:50:00,
2013-02-13 00:53:00,24.6,7.7,30.17,SSE,159,0.0,1.0,48,0.00,,,0.00,meteohub,2013-02-13 07:53:00,
2013-02-13 00:54:00,24.6,8.2,30.17,SSE,159,0.0,1.0,49,0.00,,,0.00,meteohub,2013-02-13 07:54:00,
2013-02-13 00:57:00,24.6,8.2,30.16,SSE,159,2.0,0.0,49,0.00,,,0.00,meteohub,2013-02-13 07:57:00,
2013-02-13 00:58:00,24.6,8.2,30.16,SSE,159,4.0,0.0,49,0.00,,,0.00,meteohub,2013-02-13 07:58:00,
2013-02-13 01:00:00,24.4,8.1,30.16,SSE,159,1.0,0.0,49,0.00,,,0.00,meteohub,2013-02-13 08:00:00,
2013-02-13 01:03:00,24.4,8.1,30.16,SSE,159,0.0,4.0,49,0.00,,,0.00,meteohub,2013-02-13 08:03:00,
2013-02-13 01:04:00,24.4,8.1,30.16,SSE,159,0.0,4.0,49,0.00,,,0.00,meteohub,2013-02-13 08:04:00,
2013-02-13 01:05:00,24.4,8.1,30.16,SSE,159,2.0,4.0,49,0.00,,,0.00,meteohub,2013-02-13 08:05:00,
2013-02-13 01:06:00,24.4,8.1,30.16,SSE,159,1.0,4.0,49,0.00,,,0.00,meteohub,2013-02-13 08:06:00,
2013-02-13 01:08:00,24.3,8.2,30.16,SSE,159,2.0,4.0,50,0.00,,,0.00,meteohub,2013-02-13 08:08:00,
2013-02-13 01:09:00,24.3,8.2,30.16,SSE,159,2.0,4.0,50,0.00,,,0.00,meteohub,2013-02-13 08:09:00,
2013-02-13 01:11:00,24.3,8.2,30.16,SSE,159,1.0,4.0,50,0.00,,,0.00,meteohub,2013-02-13 08:11:00,
2013-02-13 01:14:00,24.1,8.1,30.15,SSE,159,0.0,4.0,50,0.00,,,0.00,meteohub,2013-02-13 08:14:00,
2013-02-13 01:16:00,24.1,8.6,30.15,SSE,159,0.0,4.0,51,0.00,,,0.00,meteohub,2013-02-13 08:16:00,
2013-02-13 01:17:00,24.1,8.6,30.15,SSE,159,0.0,4.0,51,0.00,,,0.00,meteohub,2013-02-13 08:17:00,
2013-02-13 01:19:00,24.1,8.6,30.15,SSE,159,0.0,4.0,51,0.00,,,0.00,meteohub,2013-02-13 08:19:00,
2013-02-13 01:21:00,24.1,8.6,30.15,SSE,159,0.0,4.0,51,0.00,,,0.00,meteohub,2013-02-13 08:21:00,
2013-02-13 01:22:00,24.1,8.6,30.15,SSE,159,0.0,4.0,51,0.00,,,0.00,meteohub,2013-02-13 08:22:00,
2013-02-13 01:23:00,24.1,8.6,30.15,SSE,159,1.0,4.0,51,0.00,,,0.00,meteohub,2013-02-13 08:23:00,
2013-02-13 01:26:00,23.9,8.4,30.15,SW,227,1.0,2.0,51,0.00,,,0.00,meteohub,2013-02-13 08:26:00,
2013-02-13 01:28:00,23.9,8.4,30.15,West,266,3.0,3.0,51,0.00,,,0.00,meteohub,2013-02-13 08:28:00,
2013-02-13 01:31:00,23.7,8.2,30.15,SSW,204,2.0,5.0,51,0.00,,,0.00,meteohub,2013-02-13 08:31:00,
2013-02-13 01:33:00,23.7,8.2,30.15,South,188,1.0,5.0,51,0.00,,,0.00,meteohub,2013-02-13 08:33:00,
2013-02-13 01:34:00,23.7,8.2,30.15,NW,320,1.0,5.0,51,0.00,,,0.00,meteohub,2013-02-13 08:34:00,
2013-02-13 01:36:00,23.5,8.4,30.15,NW,320,1.0,6.0,52,0.00,,,0.00,meteohub,2013-02-13 08:36:00,
2013-02-13 01:38:00,23.5,8.4,30.15,NW,320,0.0,6.0,52,0.00,,,0.00,meteohub,2013-02-13 08:38:00,
2013-02-13 01:39:00,23.5,8.4,30.15,NW,320,0.0,6.0,52,0.00,,,0.00,meteohub,2013-02-13 08:39:00,
2013-02-13 01:41:00,23.5,8.4,30.15,NW,320,2.0,6.0,52,0.00,,,0.00,meteohub,2013-02-13 08:41:00,
2013-02-13 01:44:00,23.4,8.4,30.14,NW,320,1.0,6.0,52,0.00,,,0.00,meteohub,2013-02-13 08:44:00,
2013-02-13 01:45:00,23.4,8.4,30.14,NW,320,0.0,6.0,52,0.00,,,0.00,meteohub,2013-02-13 08:45:00,
2013-02-13 01:47:00,23.4,8.4,30.14,NW,320,0.0,6.0,52,0.00,,,0.00,meteohub,2013-02-13 08:47:00,
2013-02-13 01:50:00,23.4,8.4,30.14,NW,320,1.0,6.0,52,0.00,,,0.00,meteohub,2013-02-13 08:50:00,
2013-02-13 01:52:00,23.4,8.4,30.14,NW,320,2.0,3.0,52,0.00,,,0.00,meteohub,2013-02-13 08:52:00,
2013-02-13 01:53:00,23.4,8.4,30.14,NW,320,0.0,3.0,52,0.00,,,0.00,meteohub,2013-02-13 08:53:00,
2013-02-13 01:56:00,23.4,8.4,30.14,NW,320,2.0,3.0,52,0.00,,,0.00,meteohub,2013-02-13 08:56:00,
2013-02-13 01:58:00,23.4,8.4,30.14,NW,321,2.0,3.0,52,0.00,,,0.00,meteohub,2013-02-13 08:58:00,
2013-02-13 02:00:00,23.4,8.4,30.14,NW,321,0.0,3.0,52,0.00,,,0.00,meteohub,2013-02-13 09:00:00,
2013-02-13 02:01:00,23.4,8.4,30.14,NW,321,1.0,3.0,52,0.00,,,0.00,meteohub,2013-02-13 09:01:00,
2013-02-13 02:03:00,23.4,8.4,30.14,NW,321,0.0,3.0,52,0.00,,,0.00,meteohub,2013-02-13 09:03:00,
2013-02-13 02:04:00,23.4,8.4,30.13,NW,321,0.0,3.0,52,0.00,,,0.00,meteohub,2013-02-13 09:04:00,
2013-02-13 02:06:00,23.4,8.4,30.13,NW,320,0.0,3.0,52,0.00,,,0.00,meteohub,2013-02-13 09:06:00,
2013-02-13 02:07:00,23.4,8.4,30.13,NW,320,0.0,3.0,52,0.00,,,0.00,meteohub,2013-02-13 09:07:00,
2013-02-13 02:10:00,23.4,8.4,30.13,NW,320,0.0,3.0,52,0.00,,,0.00,meteohub,2013-02-13 09:10:00,
2013-02-13 02:11:00,23.4,8.4,30.13,NW,320,0.0,2.0,52,0.00,,,0.00,meteohub,2013-02-13 09:11:00,
2013-02-13 02:22:00,23.0,8.4,30.11,North,-999,-999.0,0.0,53,0.00,,,0.00,meteohub,2013-02-13 09:22:00,
2013-02-13 02:23:00,23.0,8.4,30.11,North,-999,-999.0,0.0,53,0.00,,,0.00,meteohub,2013-02-13 09:23:00,
2013-02-13 02:25:00,23.0,8.4,30.11,North,-999,-999.0,0.0,53,0.00,,,0.00,meteohub,2013-02-13 09:25:00,
2013-02-13 02:27:00,23.0,8.4,30.10,North,-999,-999.0,0.0,53,0.00,,,0.00,meteohub,2013-02-13 09:27:00,
2013-02-13 02:28:00,22.8,8.6,30.10,North,-999,-999.0,0.0,54,0.00,,,0.00,meteohub,2013-02-13 09:28:00,
2013-02-13 02:31:00,22.8,8.6,30.10,North,-999,-999.0,-999.0,54,0.00,,,0.00,meteohub,2013-02-13 09:31:00,
2013-02-13 02:32:00,22.8,8.6,30.10,North,-999,-999.0,-999.0,54,0.00,,,0.00,meteohub,2013-02-13 09:32:00,
2013-02-13 02:34:00,22.8,8.6,30.10,North,-999,-999.0,-999.0,54,0.00,,,0.00,meteohub,2013-02-13 09:34:00,
2013-02-13 02:36:00,22.6,8.4,30.10,NW,314,1.0,-999.0,54,0.00,,,0.00,meteohub,2013-02-13 09:36:00,
2013-02-13 02:37:00,22.5,8.2,30.10,NW,314,1.0,-999.0,54,0.00,,,0.00,meteohub,2013-02-13 09:37:00,
2013-02-13 02:38:00,22.5,8.2,30.10,NW,314,1.0,-999.0,54,0.00,,,0.00,meteohub,2013-02-13 09:38:00,
2013-02-13 02:41:00,22.5,8.2,30.09,NW,314,0.0,2.0,54,0.00,,,0.00,meteohub,2013-02-13 09:41:00,
2013-02-13 02:42:00,22.5,8.2,30.10,ENE,65,4.0,4.0,54,0.00,,,0.00,meteohub,2013-02-13 09:42:00,
2013-02-13 02:43:00,22.5,8.2,30.09,ENE,65,0.0,2.0,54,0.00,,,0.00,meteohub,2013-02-13 09:43:00,
2013-02-13 02:45:00,22.3,8.2,30.09,ENE,65,2.0,4.0,54,0.00,,,0.00,meteohub,2013-02-13 09:45:00,
2013-02-13 02:46:00,22.1,8.4,30.09,ENE,65,0.0,4.0,55,0.00,,,0.00,meteohub,2013-02-13 09:46:00,
2013-02-13 02:48:00,22.1,8.4,30.09,ENE,65,0.0,4.0,55,0.00,,,0.00,meteohub,2013-02-13 09:48:00,
2013-02-13 02:52:00,21.9,8.2,30.09,ENE,65,2.0,4.0,55,0.00,,,0.00,meteohub,2013-02-13 09:52:00,
2013-02-13 02:54:00,21.7,8.1,30.09,NNE,14,1.0,4.0,55,0.00,,,0.00,meteohub,2013-02-13 09:54:00,
2013-02-13 02:55:00,21.7,8.1,30.09,NNE,14,0.0,4.0,55,0.00,,,0.00,meteohub,2013-02-13 09:55:00,
2013-02-13 02:57:00,21.7,8.1,30.09,NNE,16,0.0,4.0,55,0.00,,,0.00,meteohub,2013-02-13 09:57:00,
2013-02-13 02:59:00,21.7,8.4,30.09,NNE,16,0.0,4.0,56,0.00,,,0.00,meteohub,2013-02-13 09:59:00,
2013-02-13 03:01:00,21.6,8.2,30.09,NW,305,2.0,3.0,56,0.00,,,0.00,meteohub,2013-02-13 10:01:00,
2013-02-13 03:02:00,21.6,8.2,30.09,NW,307,0.0,3.0,56,0.00,,,0.00,meteohub,2013-02-13 10:02:00,
2013-02-13 03:03:00,21.6,8.2,30.08,NW,307,0.0,3.0,56,0.00,,,0.00,meteohub,2013-02-13 10:03:00,
2013-02-13 03:04:00,21.6,8.2,30.08,NW,307,1.0,3.0,56,0.00,,,0.00,meteohub,2013-02-13 10:04:00,
2013-02-13 03:06:00,21.6,8.2,30.08,NW,307,0.0,4.0,56,0.00,,,0.00,meteohub,2013-02-13 10:06:00,
2013-02-13 03:07:00,21.4,8.1,30.08,NW,307,0.0,4.0,56,0.00,,,0.00,meteohub,2013-02-13 10:07:00,
2013-02-13 03:10:00,21.4,8.1,30.08,NW,307,0.0,4.0,56,0.00,,,0.00,meteohub,2013-02-13 10:10:00,
2013-02-13 03:11:00,21.4,8.6,30.08,NW,307,0.0,4.0,57,0.00,,,0.00,meteohub,2013-02-13 10:11:00,
2013-02-13 03:13:00,21.4,8.1,30.08,NW,307,0.0,4.0,56,0.00,,,0.00,meteohub,2013-02-13 10:13:00,
2013-02-13 03:16:00,21.2,8.4,30.08,NW,307,0.0,4.0,57,0.00,,,0.00,meteohub,2013-02-13 10:16:00,
2013-02-13 03:17:00,21.2,8.4,30.08,NW,307,0.0,4.0,57,0.00,,,0.00,meteohub,2013-02-13 10:17:00,
2013-02-13 03:19:00,21.2,8.4,30.08,NW,307,0.0,4.0,57,0.00,,,0.00,meteohub,2013-02-13 10:19:00,
2013-02-13 03:20:00,21.2,8.4,30.08,NW,307,0.0,4.0,57,0.00,,,0.00,meteohub,2013-02-13 10:20:00,
2013-02-13 03:22:00,21.0,8.2,30.08,North,-999,-999.0,3.0,57,0.00,,,0.00,meteohub,2013-02-13 10:22:00,
2013-02-13 03:24:00,21.0,8.2,30.08,North,-999,-999.0,3.0,57,0.00,,,0.00,meteohub,2013-02-13 10:24:00,
2013-02-13 03:25:00,21.0,8.2,30.08,North,-999,-999.0,3.0,57,0.00,,,0.00,meteohub,2013-02-13 10:25:00,
2013-02-13 03:27:00,21.0,8.2,30.08,North,-999,-999.0,0.0,57,0.00,,,0.00,meteohub,2013-02-13 10:27:00,
2013-02-13 03:30:00,21.0,8.6,30.08,North,-999,-999.0,0.0,58,0.00,,,0.00,meteohub,2013-02-13 10:30:00,
2013-02-13 03:31:00,20.8,8.4,30.08,North,-999,-999.0,0.0,58,0.00,,,0.00,meteohub,2013-02-13 10:31:00,
2013-02-13 03:32:00,20.8,8.4,30.08,North,-999,-999.0,0.0,58,0.00,,,0.00,meteohub,2013-02-13 10:32:00,
2013-02-13 03:36:00,20.8,8.4,30.08,North,-999,-999.0,-999.0,58,0.00,,,0.00,meteohub,2013-02-13 10:36:00,
2013-02-13 03:37:00,20.8,8.4,30.08,North,-999,-999.0,-999.0,58,0.00,,,0.00,meteohub,2013-02-13 10:37:00,
2013-02-13 03:39:00,20.8,8.4,30.08,North,-999,-999.0,-999.0,58,0.00,,,0.00,meteohub,2013-02-13 10:39:00,
2013-02-13 03:42:00,21.0,8.6,30.08,SSE,165,0.0,-999.0,58,0.00,,,0.00,meteohub,2013-02-13 10:42:00,
2013-02-13 03:46:00,21.0,8.6,30.08,SE,146,0.0,5.0,58,0.00,,,0.00,meteohub,2013-02-13 10:46:00,
2013-02-13 03:47:00,21.0,8.6,30.08,SE,146,1.0,5.0,58,0.00,,,0.00,meteohub,2013-02-13 10:47:00,
2013-02-13 03:48:00,21.0,8.6,30.08,SE,146,4.0,5.0,58,0.00,,,0.00,meteohub,2013-02-13 10:48:00,
2013-02-13 03:50:00,21.0,8.6,30.08,SE,146,0.0,5.0,58,0.00,,,0.00,meteohub,2013-02-13 10:50:00,
2013-02-13 03:51:00,21.0,8.6,30.08,SE,146,1.0,5.0,58,0.00,,,0.00,meteohub,2013-02-13 10:51:00,
2013-02-13 03:52:00,21.0,8.6,30.08,SE,146,0.0,5.0,58,0.00,,,0.00,meteohub,2013-02-13 10:52:00,
2013-02-13 03:55:00,21.0,8.6,30.08,SE,146,0.0,5.0,58,0.00,,,0.00,meteohub,2013-02-13 10:55:00,
2013-02-13 03:56:00,21.0,8.6,30.08,SE,146,2.0,5.0,58,0.00,,,0.00,meteohub,2013-02-13 10:56:00,
2013-02-13 04:01:00,21.0,8.6,30.08,SE,146,0.0,4.0,58,0.00,,,0.00,meteohub,2013-02-13 11:01:00,
2013-02-13 04:03:00,21.0,8.6,30.07,SW,215,2.0,4.0,58,0.00,,,0.00,meteohub,2013-02-13 11:03:00,
2013-02-13 04:04:00,21.0,8.6,30.07,SW,214,0.0,4.0,58,0.00,,,0.00,meteohub,2013-02-13 11:04:00,
2013-02-13 04:07:00,21.0,8.6,30.07,SW,215,2.0,3.0,58,0.00,,,0.00,meteohub,2013-02-13 11:07:00,
2013-02-13 04:09:00,20.8,8.4,30.08,SW,215,0.0,3.0,58,0.00,,,0.00,meteohub,2013-02-13 11:09:00,
2013-02-13 04:12:00,20.8,8.4,30.08,SW,215,1.0,3.0,58,0.00,,,0.00,meteohub,2013-02-13 11:12:00,
2013-02-13 04:15:00,20.8,8.8,30.08,SW,215,0.0,3.0,59,0.00,,,0.00,meteohub,2013-02-13 11:15:00,
2013-02-13 04:16:00,20.8,8.8,30.08,SW,215,0.0,3.0,59,0.00,,,0.00,meteohub,2013-02-13 11:16:00,
2013-02-13 04:17:00,20.8,8.8,30.08,SW,215,0.0,3.0,59,0.00,,,0.00,meteohub,2013-02-13 11:17:00,
2013-02-13 04:19:00,20.7,8.6,30.08,SW,215,0.0,3.0,59,0.00,,,0.00,meteohub,2013-02-13 11:19:00,
2013-02-13 04:21:00,20.7,8.6,30.08,SW,215,0.0,2.0,59,0.00,,,0.00,meteohub,2013-02-13 11:21:00,
2013-02-13 04:22:00,20.7,8.6,30.08,SW,215,0.0,2.0,59,0.00,,,0.00,meteohub,2013-02-13 11:22:00,
2013-02-13 04:24:00,20.7,8.6,30.07,North,-999,-999.0,2.0,59,0.00,,,0.00,meteohub,2013-02-13 11:24:00,
2013-02-13 04:27:00,20.7,8.6,30.08,North,-999,-999.0,2.0,59,0.00,,,0.00,meteohub,2013-02-13 11:27:00,
2013-02-13 04:29:00,20.7,9.0,30.08,North,-999,-999.0,2.0,60,0.00,,,0.00,meteohub,2013-02-13 11:29:00,
2013-02-13 04:30:00,20.5,8.8,30.08,North,-999,-999.0,2.0,60,0.00,,,0.00,meteohub,2013-02-13 11:30:00,
2013-02-13 04:32:00,20.5,8.4,30.07,North,-999,-999.0,0.0,59,0.00,,,0.00,meteohub,2013-02-13 11:32:00,
2013-02-13 04:34:00,20.5,8.4,30.07,North,-999,-999.0,0.0,59,0.00,,,0.00,meteohub,2013-02-13 11:34:00,
2013-02-13 04:35:00,20.5,8.8,30.07,North,-999,-999.0,0.0,60,0.00,,,0.00,meteohub,2013-02-13 11:35:00,
2013-02-13 04:36:00,20.5,8.8,30.07,North,-999,-999.0,-999.0,60,0.00,,,0.00,meteohub,2013-02-13 11:36:00,
2013-02-13 04:37:00,20.5,8.8,30.07,North,-999,-999.0,-999.0,60,0.00,,,0.00,meteohub,2013-02-13 11:37:00,
2013-02-13 04:40:00,20.5,8.8,30.07,North,-999,-999.0,-999.0,60,0.00,,,0.00,meteohub,2013-02-13 11:40:00,
2013-02-13 04:41:00,20.5,8.8,30.07,North,-999,-999.0,-999.0,60,0.00,,,0.00,meteohub,2013-02-13 11:41:00,
2013-02-13 04:44:00,20.5,8.8,30.07,NE,53,0.0,-999.0,60,0.00,,,0.00,meteohub,2013-02-13 11:44:00,
2013-02-13 04:46:00,20.5,8.8,30.08,NE,55,0.0,0.0,60,0.00,,,0.00,meteohub,2013-02-13 11:46:00,
2013-02-13 04:47:00,20.5,8.8,30.08,NE,55,0.0,0.0,60,0.00,,,0.00,meteohub,2013-02-13 11:47:00,
2013-02-13 04:50:00,20.8,9.5,30.07,NW,309,4.0,0.0,61,0.00,,,0.00,meteohub,2013-02-13 11:50:00,
2013-02-13 04:51:00,21.0,10.0,30.07,NW,317,10.0,0.0,62,0.00,,,0.00,meteohub,2013-02-13 11:51:00,
2013-02-13 04:52:00,21.4,10.4,30.07,NW,323,3.0,11.0,62,0.00,,,0.00,meteohub,2013-02-13 11:52:00,
2013-02-13 04:55:00,21.7,9.7,30.07,NNW,327,0.0,11.0,59,0.00,,,0.00,meteohub,2013-02-13 11:55:00,
2013-02-13 04:56:00,21.9,9.9,30.07,NNW,327,3.0,11.0,59,0.00,,,0.00,meteohub,2013-02-13 11:56:00,
2013-02-13 04:57:00,21.9,9.9,30.07,NNW,327,4.0,11.0,59,0.00,,,0.00,meteohub,2013-02-13 11:57:00,
2013-02-13 05:01:00,21.9,9.9,30.07,NNW,327,0.0,11.0,59,0.00,,,0.00,meteohub,2013-02-13 12:01:00,
2013-02-13 05:03:00,22.1,10.0,30.07,NNW,327,2.0,11.0,59,0.00,,,0.00,meteohub,2013-02-13 12:03:00,
2013-02-13 05:05:00,22.3,10.2,30.07,NNW,327,0.0,11.0,59,0.00,,,0.00,meteohub,2013-02-13 12:05:00,
2013-02-13 05:09:00,22.5,10.2,30.06,NNW,327,2.0,11.0,59,0.00,,,0.00,meteohub,2013-02-13 12:09:00,
2013-02-13 05:10:00,22.5,10.2,30.06,NNW,327,2.0,11.0,59,0.00,,,0.00,meteohub,2013-02-13 12:10:00,
2013-02-13 05:12:00,22.8,10.2,30.06,NNW,327,2.0,4.0,58,0.00,,,0.00,meteohub,2013-02-13 12:12:00,
2013-02-13 05:17:00,23.7,10.8,30.06,WNW,287,0.0,4.0,57,0.00,,,0.00,meteohub,2013-02-13 12:17:00,
2013-02-13 05:20:00,24.1,10.6,30.07,WNW,287,1.0,4.0,56,0.00,,,0.00,meteohub,2013-02-13 12:20:00,
2013-02-13 05:22:00,24.1,10.2,30.07,WNW,286,0.0,4.0,55,0.00,,,0.00,meteohub,2013-02-13 12:22:00,
2013-02-13 05:25:00,23.7,9.5,30.07,WNW,286,0.0,4.0,54,0.00,,,0.00,meteohub,2013-02-13 12:25:00,
2013-02-13 05:27:00,23.5,9.7,30.07,WNW,287,0.0,4.0,55,0.00,,,0.00,meteohub,2013-02-13 12:27:00,
2013-02-13 05:30:00,23.4,9.5,30.07,WNW,287,0.0,4.0,55,0.00,,,0.00,meteohub,2013-02-13 12:30:00,
2013-02-13 05:31:00,23.4,9.5,30.06,WNW,286,1.0,4.0,55,0.00,,,0.00,meteohub,2013-02-13 12:31:00,
2013-02-13 05:32:00,23.4,9.5,30.06,WNW,287,1.0,4.0,55,0.00,,,0.00,meteohub,2013-02-13 12:32:00,
2013-02-13 05:34:00,23.2,9.3,30.06,WNW,286,0.0,4.0,55,0.00,,,0.00,meteohub,2013-02-13 12:34:00,
2013-02-13 05:35:00,23.2,9.3,30.06,WNW,286,0.0,4.0,55,0.00,,,0.00,meteohub,2013-02-13 12:35:00,
2013-02-13 05:36:00,23.2,9.3,30.06,WNW,287,0.0,1.0,55,0.00,,,0.00,meteohub,2013-02-13 12:36:00,
2013-02-13 05:37:00,23.0,9.3,30.06,WNW,286,0.0,1.0,55,0.00,,,0.00,meteohub,2013-02-13 12:37:00,
2013-02-13 05:39:00,22.8,9.1,30.06,WNW,286,0.0,1.0,55,0.00,,,0.00,meteohub,2013-02-13 12:39:00,
2013-02-13 05:41:00,22.6,9.0,30.06,WNW,287,0.0,1.0,55,0.00,,,0.00,meteohub,2013-02-13 12:41:00,
2013-02-13 05:42:00,22.6,9.0,30.06,WNW,286,0.0,1.0,55,0.00,,,0.00,meteohub,2013-02-13 12:42:00,
2013-02-13 05:45:00,22.5,9.1,30.06,WNW,286,0.0,2.0,56,0.00,,,0.00,meteohub,2013-02-13 12:45:00,
2013-02-13 05:46:00,22.3,9.0,30.06,WNW,286,2.0,2.0,56,0.00,,,0.00,meteohub,2013-02-13 12:46:00,
2013-02-13 05:48:00,22.3,9.0,30.06,SSW,202,1.0,2.0,56,0.00,,,0.00,meteohub,2013-02-13 12:48:00,
2013-02-13 05:50:00,22.3,9.0,30.06,SSW,202,0.0,2.0,56,0.00,,,0.00,meteohub,2013-02-13 12:50:00,
2013-02-13 05:51:00,22.1,8.8,30.06,SSW,202,0.0,4.0,56,0.00,,,0.00,meteohub,2013-02-13 12:51:00,
2013-02-13 05:53:00,21.9,8.6,30.05,SSW,202,1.0,4.0,56,0.00,,,0.00,meteohub,2013-02-13 12:53:00,
2013-02-13 05:54:00,21.9,8.6,30.05,SSW,202,1.0,4.0,56,0.00,,,0.00,meteohub,2013-02-13 12:54:00,
2013-02-13 05:56:00,21.9,8.6,30.05,SSW,207,2.0,4.0,56,0.00,,,0.00,meteohub,2013-02-13 12:56:00,
2013-02-13 05:58:00,21.7,8.8,30.05,SW,219,3.0,4.0,57,0.00,,,0.00,meteohub,2013-02-13 12:58:00,
2013-02-13 05:59:00,21.7,8.8,30.05,SW,228,4.0,4.0,57,0.00,,,0.00,meteohub,2013-02-13 12:59:00,
2013-02-13 06:01:00,21.6,8.6,30.04,SW,236,4.0,5.0,57,0.00,,,0.00,meteohub,2013-02-13 13:01:00,
2013-02-13 06:02:00,21.7,9.3,30.04,SW,215,3.0,5.0,58,0.00,,,0.00,meteohub,2013-02-13 13:02:00,
2013-02-13 06:04:00,21.9,9.3,30.04,SW,234,2.0,5.0,58,0.00,,,0.00,meteohub,2013-02-13 13:04:00,
2013-02-13 06:05:00,21.9,9.9,30.04,SW,230,2.0,7.0,59,0.00,,,0.00,meteohub,2013-02-13 13:05:00,
2013-02-13 06:07:00,22.3,10.2,30.04,WSW,241,1.0,7.0,59,0.00,,,0.00,meteohub,2013-02-13 13:07:00,
2013-02-13 06:08:00,22.3,9.7,30.04,WSW,241,0.0,7.0,58,0.00,,,0.00,meteohub,2013-02-13 13:08:00,
2013-02-13 06:12:00,22.3,9.3,30.04,West,263,1.0,8.0,57,0.00,,,0.00,meteohub,2013-02-13 13:12:00,
2013-02-13 06:13:00,22.3,9.3,30.04,West,263,0.0,8.0,57,0.00,,,0.00,meteohub,2013-02-13 13:13:00,
2013-02-13 06:14:00,22.3,9.3,30.03,West,263,0.0,8.0,57,0.00,,,0.00,meteohub,2013-02-13 13:14:00,
2013-02-13 06:18:00,21.9,9.0,30.04,NNW,344,1.0,8.0,57,0.00,,,0.00,meteohub,2013-02-13 13:18:00,
2013-02-13 06:19:00,21.9,9.0,30.04,NNW,344,2.0,8.0,57,0.00,,,0.00,meteohub,2013-02-13 13:19:00,
2013-02-13 06:20:00,21.9,9.0,30.04,NNW,344,1.0,8.0,57,0.00,,,0.00,meteohub,2013-02-13 13:20:00,
2013-02-13 06:21:00,21.7,8.8,30.03,NNW,344,0.0,5.0,57,0.00,,,0.00,meteohub,2013-02-13 13:21:00,
2013-02-13 06:24:00,21.7,8.8,30.03,SW,221,8.0,8.0,57,0.00,,,0.00,meteohub,2013-02-13 13:24:00,
2013-02-13 06:26:00,21.7,8.8,30.03,NW,318,1.0,8.0,57,0.00,,,0.00,meteohub,2013-02-13 13:26:00,
2013-02-13 06:27:00,21.7,8.8,30.03,NW,318,1.0,8.0,57,0.00,,,0.00,meteohub,2013-02-13 13:27:00,
2013-02-13 06:30:00,21.4,9.0,30.03,NW,318,1.0,8.0,58,0.00,,,0.00,meteohub,2013-02-13 13:30:00,
2013-02-13 06:32:00,21.4,9.3,30.03,NW,318,1.0,8.0,59,0.00,,,0.00,meteohub,2013-02-13 13:32:00,
2013-02-13 06:34:00,21.6,9.5,30.03,NW,318,1.0,8.0,59,0.00,,,0.00,meteohub,2013-02-13 13:34:00,
2013-02-13 06:35:00,21.7,9.7,30.03,NW,318,1.0,8.0,59,0.00,,,0.00,meteohub,2013-02-13 13:35:00,
2013-02-13 06:37:00,21.9,9.9,30.03,NW,318,1.0,8.0,59,0.00,,,0.00,meteohub,2013-02-13 13:37:00,
2013-02-13 06:38:00,22.5,10.2,30.03,NW,318,1.0,8.0,59,0.00,,,0.00,meteohub,2013-02-13 13:38:00,
2013-02-13 06:40:00,23.2,10.9,30.02,North,-999,-999.0,8.0,59,0.00,,,0.00,meteohub,2013-02-13 13:40:00,
2013-02-13 06:41:00,23.5,11.3,30.02,North,-999,-999.0,5.0,59,0.00,,,0.00,meteohub,2013-02-13 13:41:00,
2013-02-13 06:42:00,24.1,11.1,30.02,North,-999,-999.0,5.0,57,0.00,,,0.00,meteohub,2013-02-13 13:42:00,
2013-02-13 06:45:00,25.3,11.5,30.02,North,-999,-999.0,5.0,55,0.00,,,0.00,meteohub,2013-02-13 13:45:00,
2013-02-13 06:49:00,27.1,11.8,30.02,North,-999,-999.0,1.0,52,0.00,,,0.00,meteohub,2013-02-13 13:49:00,
2013-02-13 06:50:00,27.9,12.0,30.02,North,-999,-999.0,1.0,51,0.00,,,0.00,meteohub,2013-02-13 13:50:00,
2013-02-13 06:54:00,28.8,11.5,30.02,North,-999,-999.0,-999.0,48,0.00,,,0.00,meteohub,2013-02-13 13:54:00,
2013-02-13 06:56:00,29.5,11.7,30.02,North,-999,-999.0,-999.0,47,0.00,,,0.00,meteohub,2013-02-13 13:56:00,
2013-02-13 06:59:00,30.4,11.7,30.01,SW,222,6.0,-999.0,45,0.00,,,0.00,meteohub,2013-02-13 13:59:00,
2013-02-13 07:00:00,30.6,11.7,30.01,West,259,8.0,-999.0,45,0.00,,,0.00,meteohub,2013-02-13 14:00:00,
2013-02-13 07:03:00,31.5,11.5,30.01,SW,236,6.0,10.0,43,0.00,,,0.00,meteohub,2013-02-13 14:03:00,
2013-02-13 07:05:00,31.8,11.3,30.01,WSW,238,6.0,10.0,42,0.00,,,0.00,meteohub,2013-02-13 14:05:00,
2013-02-13 07:07:00,32.4,11.8,30.01,WSW,242,10.0,11.0,42,0.00,,,0.00,meteohub,2013-02-13 14:07:00,
2013-02-13 07:08:00,32.5,11.5,30.02,SW,229,6.0,11.0,41,0.00,,,0.00,meteohub,2013-02-13 14:08:00,
2013-02-13 07:09:00,32.7,11.7,30.02,WSW,254,8.0,11.0,41,0.00,,,0.00,meteohub,2013-02-13 14:09:00,
2013-02-13 07:10:00,32.9,11.3,30.02,SW,236,9.0,11.0,40,0.00,,,0.00,meteohub,2013-02-13 14:10:00,
2013-02-13 07:14:00,33.4,11.1,30.02,WSW,257,4.0,11.0,39,0.00,,,0.00,meteohub,2013-02-13 14:14:00,
2013-02-13 07:15:00,33.4,11.1,30.02,SW,228,8.0,11.0,39,0.00,,,0.00,meteohub,2013-02-13 14:15:00,
2013-02-13 07:17:00,33.6,11.3,30.02,WSW,239,8.0,13.0,39,0.00,,,0.00,meteohub,2013-02-13 14:17:00,
2013-02-13 07:18:00,34.0,11.7,30.02,SW,233,15.0,15.0,39,0.00,,,0.00,meteohub,2013-02-13 14:18:00,
2013-02-13 07:21:00,34.2,11.1,30.02,SW,236,6.0,15.0,38,0.00,,,0.00,meteohub,2013-02-13 14:21:00,
2013-02-13 07:22:00,34.2,11.1,30.02,WNW,283,6.0,15.0,38,0.00,,,0.00,meteohub,2013-02-13 14:22:00,
2013-02-13 07:25:00,34.2,11.1,30.02,WSW,237,8.0,15.0,38,0.00,,,0.00,meteohub,2013-02-13 14:25:00,
2013-02-13 07:26:00,34.2,11.1,30.02,SW,229,7.0,15.0,38,0.00,,,0.00,meteohub,2013-02-13 14:26:00,
2013-02-13 07:29:00,34.2,11.1,30.02,SW,235,4.0,15.0,38,0.00,,,0.00,meteohub,2013-02-13 14:29:00,
2013-02-13 07:30:00,34.2,11.1,30.02,SW,234,6.0,15.0,38,0.00,,,0.00,meteohub,2013-02-13 14:30:00,
2013-02-13 07:32:00,34.2,11.1,30.02,SW,217,5.0,15.0,38,0.00,,,0.00,meteohub,2013-02-13 14:32:00,
2013-02-13 07:47:00,35.4,12.4,30.02,NNE,28,0.0,9.0,38,0.00,,,0.00,meteohub,2013-02-13 14:47:00,
2013-02-13 07:48:00,35.4,12.4,30.02,NNE,28,0.0,9.0,38,0.00,,,0.00,meteohub,2013-02-13 14:48:00,
2013-02-13 07:50:00,35.1,12.6,30.02,NNE,28,0.0,8.0,39,0.00,,,0.00,meteohub,2013-02-13 14:50:00,
2013-02-13 07:53:00,34.9,12.9,30.02,NNE,28,0.0,8.0,40,0.00,,,0.00,meteohub,2013-02-13 14:53:00,
2013-02-13 07:54:00,34.9,12.9,30.02,NNE,28,0.0,8.0,40,0.00,,,0.00,meteohub,2013-02-13 14:54:00,
2013-02-13 07:55:00,34.5,12.7,30.03,NNE,28,1.0,8.0,40,0.00,,,0.00,meteohub,2013-02-13 14:55:00,
2013-02-13 07:58:00,34.2,12.4,30.03,NNE,28,0.0,4.0,40,0.00,,,0.00,meteohub,2013-02-13 14:58:00,
2013-02-13 08:00:00,33.6,11.8,30.02,NNE,28,0.0,4.0,40,0.00,,,0.00,meteohub,2013-02-13 15:00:00,
2013-02-13 08:01:00,33.4,12.2,30.02,NNE,28,0.0,2.0,41,0.00,,,0.00,meteohub,2013-02-13 15:01:00,
2013-02-13 08:02:00,33.3,11.5,30.02,NNE,28,0.0,2.0,40,0.00,,,0.00,meteohub,2013-02-13 15:02:00,
2013-02-13 08:03:00,33.3,12.0,30.02,NNE,28,0.0,2.0,41,0.00,,,0.00,meteohub,2013-02-13 15:03:00,
2013-02-13 08:06:00,33.1,12.6,30.02,West,275,2.0,2.0,42,0.00,,,0.00,meteohub,2013-02-13 15:06:00,
2013-02-13 08:07:00,33.1,12.6,30.02,West,275,1.0,2.0,42,0.00,,,0.00,meteohub,2013-02-13 15:07:00,
2013-02-13 08:10:00,32.7,12.7,30.03,West,275,1.0,2.0,43,0.00,,,0.00,meteohub,2013-02-13 15:10:00,
2013-02-13 08:11:00,32.7,12.7,30.03,West,275,0.0,5.0,43,0.00,,,0.00,meteohub,2013-02-13 15:11:00,
2013-02-13 08:12:00,32.5,13.1,30.03,West,275,0.0,5.0,44,0.00,,,0.00,meteohub,2013-02-13 15:12:00,
2013-02-13 08:13:00,32.5,13.1,30.03,West,275,1.0,5.0,44,0.00,,,0.00,meteohub,2013-02-13 15:13:00,
2013-02-13 08:16:00,32.5,13.1,30.03,West,275,0.0,5.0,44,0.00,,,0.00,meteohub,2013-02-13 15:16:00,
2013-02-13 08:17:00,32.5,13.6,30.03,West,275,0.0,5.0,45,0.00,,,0.00,meteohub,2013-02-13 15:17:00,
2013-02-13 08:19:00,32.5,13.6,30.02,West,275,0.0,5.0,45,0.00,,,0.00,meteohub,2013-02-13 15:19:00,
2013-02-13 08:21:00,32.7,13.3,30.02,West,275,0.0,4.0,44,0.00,,,0.00,meteohub,2013-02-13 15:21:00,
2013-02-13 08:22:00,32.7,13.6,30.02,West,275,1.0,4.0,45,0.00,,,0.00,meteohub,2013-02-13 15:22:00,
2013-02-13 08:23:00,32.7,13.6,30.03,West,275,0.0,4.0,45,0.00,,,0.00,meteohub,2013-02-13 15:23:00,
2013-02-13 08:27:00,33.1,14.0,30.03,West,275,1.0,1.0,45,0.00,,,0.00,meteohub,2013-02-13 15:27:00,
2013-02-13 08:28:00,33.1,14.0,30.03,West,275,2.0,2.0,45,0.00,,,0.00,meteohub,2013-02-13 15:28:00,
2013-02-13 08:29:00,33.1,14.0,30.03,West,275,0.0,1.0,45,0.00,,,0.00,meteohub,2013-02-13 15:29:00,
2013-02-13 08:33:00,33.3,13.6,30.03,West,275,0.0,3.0,44,0.00,,,0.00,meteohub,2013-02-13 15:33:00,
2013-02-13 08:34:00,33.3,13.6,30.03,West,275,0.0,3.0,44,0.00,,,0.00,meteohub,2013-02-13 15:34:00,
2013-02-13 08:36:00,33.3,13.6,30.02,West,275,0.0,3.0,44,0.00,,,0.00,meteohub,2013-02-13 15:36:00,
2013-02-13 08:40:00,33.3,13.6,30.02,West,275,1.0,3.0,44,0.00,,,0.00,meteohub,2013-02-13 15:40:00,
2013-02-13 08:41:00,33.3,13.6,30.02,West,275,0.0,3.0,44,0.00,,,0.00,meteohub,2013-02-13 15:41:00,
2013-02-13 08:45:00,33.3,14.2,30.02,West,275,0.0,3.0,45,0.00,,,0.00,meteohub,2013-02-13 15:45:00,
2013-02-13 08:46:00,33.3,14.2,30.02,West,275,0.0,2.0,45,0.00,,,0.00,meteohub,2013-02-13 15:46:00,
2013-02-13 08:49:00,33.3,14.2,30.02,West,275,0.0,2.0,45,0.00,,,0.00,meteohub,2013-02-13 15:49:00,
2013-02-13 08:50:00,33.3,13.6,30.01,West,275,0.0,2.0,44,0.00,,,0.00,meteohub,2013-02-13 15:50:00,
2013-02-13 08:51:00,33.3,14.2,30.01,West,275,0.0,2.0,45,0.00,,,0.00,meteohub,2013-02-13 15:51:00,
2013-02-13 08:53:00,33.4,14.4,30.01,West,275,0.0,2.0,45,0.00,,,0.00,meteohub,2013-02-13 15:53:00,
2013-02-13 08:55:00,33.4,13.3,30.01,West,275,1.0,2.0,43,0.00,,,0.00,meteohub,2013-02-13 15:55:00,
2013-02-13 08:58:00,33.6,14.0,30.01,West,275,0.0,1.0,44,0.00,,,0.00,meteohub,2013-02-13 15:58:00,
2013-02-13 09:01:00,34.2,14.5,30.01,West,275,0.0,2.0,44,0.00,,,0.00,meteohub,2013-02-13 16:01:00,
2013-02-13 09:02:00,34.2,14.5,30.01,West,275,0.0,2.0,44,0.00,,,0.00,meteohub,2013-02-13 16:02:00,
2013-02-13 09:03:00,34.3,15.3,30.01,West,275,1.0,2.0,45,0.00,,,0.00,meteohub,2013-02-13 16:03:00,
2013-02-13 09:05:00,34.7,15.1,30.01,West,275,0.0,2.0,44,0.00,,,0.00,meteohub,2013-02-13 16:05:00,
2013-02-13 09:08:00,35.1,15.8,30.01,WSW,242,2.0,3.0,45,0.00,,,0.00,meteohub,2013-02-13 16:08:00,
2013-02-13 09:09:00,35.2,14.9,30.01,WSW,258,3.0,3.0,43,0.00,,,0.00,meteohub,2013-02-13 16:09:00,
2013-02-13 09:11:00,35.8,14.4,30.01,SW,231,4.0,5.0,41,0.00,,,0.00,meteohub,2013-02-13 16:11:00,
2013-02-13 09:14:00,37.0,13.8,30.01,SSW,201,3.0,5.0,38,0.00,,,0.00,meteohub,2013-02-13 16:14:00,
2013-02-13 09:15:00,37.6,14.2,30.01,SW,217,3.0,5.0,38,0.00,,,0.00,meteohub,2013-02-13 16:15:00,
2013-02-13 09:16:00,38.1,14.2,30.01,SW,225,3.0,12.0,37,0.00,,,0.00,meteohub,2013-02-13 16:16:00,
2013-02-13 09:20:00,39.6,13.5,30.00,WSW,241,5.0,12.0,34,0.00,,,0.00,meteohub,2013-02-13 16:20:00,
2013-02-13 09:21:00,39.6,13.5,30.00,SW,234,6.0,12.0,34,0.00,,,0.00,meteohub,2013-02-13 16:21:00,
2013-02-13 09:22:00,39.9,13.8,30.00,SW,236,6.0,12.0,34,0.00,,,0.00,meteohub,2013-02-13 16:22:00,
2013-02-13 09:25:00,40.8,13.3,30.00,WSW,244,2.0,12.0,32,0.00,,,0.00,meteohub,2013-02-13 16:25:00,
2013-02-13 09:26:00,41.0,13.5,30.00,WSW,244,5.0,12.0,32,0.00,,,0.00,meteohub,2013-02-13 16:26:00,
2013-02-13 09:27:00,41.4,12.9,30.00,WSW,252,5.0,12.0,31,0.00,,,0.00,meteohub,2013-02-13 16:27:00,
2013-02-13 09:31:00,41.9,12.7,30.01,West,260,0.0,9.0,30,0.00,,,0.00,meteohub,2013-02-13 16:31:00,
2013-02-13 09:32:00,41.9,12.7,30.01,West,260,0.0,9.0,30,0.00,,,0.00,meteohub,2013-02-13 16:32:00,
2013-02-13 09:33:00,42.1,12.9,30.01,West,260,0.0,9.0,30,0.00,,,0.00,meteohub,2013-02-13 16:33:00,
2013-02-13 09:34:00,42.1,12.9,30.01,West,260,0.0,9.0,30,0.00,,,0.00,meteohub,2013-02-13 16:34:00,
2013-02-13 09:37:00,42.4,13.1,30.01,West,260,1.0,7.0,30,0.00,,,0.00,meteohub,2013-02-13 16:37:00,
2013-02-13 09:38:00,42.6,13.3,30.01,North,351,5.0,7.0,30,0.00,,,0.00,meteohub,2013-02-13 16:38:00,
2013-02-13 09:40:00,43.0,13.6,30.01,NNE,15,8.0,8.0,30,0.00,,,0.00,meteohub,2013-02-13 16:40:00,
2013-02-13 09:41:00,43.3,15.4,30.01,NE,42,5.0,5.0,32,0.00,,,0.00,meteohub,2013-02-13 16:41:00,
2013-02-13 09:43:00,43.5,15.6,30.01,NNE,18,4.0,5.0,32,0.00,,,0.00,meteohub,2013-02-13 16:43:00,
2013-02-13 09:44:00,43.7,15.8,30.01,NNE,14,6.0,6.0,32,0.00,,,0.00,meteohub,2013-02-13 16:44:00,
2013-02-13 09:45:00,43.9,16.0,30.01,NNE,19,5.0,5.0,32,0.00,,,0.00,meteohub,2013-02-13 16:45:00,
2013-02-13 09:46:00,44.1,16.2,30.01,North,5,7.0,9.0,32,0.00,,,0.00,meteohub,2013-02-13 16:46:00,
2013-02-13 09:50:00,44.8,14.5,30.01,NE,44,8.0,9.0,29,0.00,,,0.00,meteohub,2013-02-13 16:50:00,
2013-02-13 09:51:00,45.0,14.5,30.01,North,0,2.0,9.0,29,0.00,,,0.00,meteohub,2013-02-13 16:51:00,
2013-02-13 09:53:00,45.3,14.2,30.01,North,355,2.0,9.0,28,0.00,,,0.00,meteohub,2013-02-13 16:53:00,
2013-02-13 09:55:00,45.9,13.8,30.01,NNW,335,11.0,11.0,27,0.00,,,0.00,meteohub,2013-02-13 16:55:00,
2013-02-13 09:56:00,46.0,13.1,30.01,North,9,9.0,14.0,26,0.00,,,0.00,meteohub,2013-02-13 16:56:00,
2013-02-13 09:57:00,46.0,13.1,30.01,North,355,10.0,14.0,26,0.00,,,0.00,meteohub,2013-02-13 16:57:00,
2013-02-13 10:01:00,46.2,12.4,30.01,North,350,11.0,17.0,25,0.00,,,0.00,meteohub,2013-02-13 17:01:00,
2013-02-13 10:02:00,46.2,12.4,30.01,North,351,15.0,17.0,25,0.00,,,0.00,meteohub,2013-02-13 17:02:00,
2013-02-13 10:04:00,46.2,12.4,30.01,NNW,345,17.0,17.0,25,0.00,,,0.00,meteohub,2013-02-13 17:04:00,
2013-02-13 10:07:00,46.2,12.4,30.02,NW,321,11.0,18.0,25,0.00,,,0.00,meteohub,2013-02-13 17:07:00,
2013-02-13 10:08:00,46.0,12.2,30.02,WNW,293,8.0,18.0,25,0.00,,,0.00,meteohub,2013-02-13 17:08:00,
2013-02-13 10:09:00,46.0,11.3,30.01,NNW,330,13.0,18.0,24,0.00,,,0.00,meteohub,2013-02-13 17:09:00,
2013-02-13 10:12:00,46.2,11.5,30.02,West,276,17.0,19.0,24,0.00,,,0.00,meteohub,2013-02-13 17:12:00,
2013-02-13 10:14:00,46.2,11.5,30.02,NNW,331,9.0,19.0,24,0.00,,,0.00,meteohub,2013-02-13 17:14:00,
2013-02-13 10:16:00,46.0,11.3,30.02,NW,319,15.0,21.0,24,0.00,,,0.00,meteohub,2013-02-13 17:16:00,
2013-02-13 10:17:00,45.9,11.1,30.02,NNW,329,15.0,21.0,24,0.00,,,0.00,meteohub,2013-02-13 17:17:00,
2013-02-13 10:18:00,45.9,12.0,30.02,NW,322,11.0,21.0,25,0.00,,,0.00,meteohub,2013-02-13 17:18:00,
2013-02-13 10:19:00,45.3,11.5,30.02,NNW,344,12.0,21.0,25,0.00,,,0.00,meteohub,2013-02-13 17:19:00,
2013-02-13 10:21:00,45.0,11.3,30.03,NNW,327,17.0,21.0,25,0.00,,,0.00,meteohub,2013-02-13 17:21:00,
2013-02-13 10:23:00,44.6,10.9,30.03,NW,325,7.0,21.0,25,0.00,,,0.00,meteohub,2013-02-13 17:23:00,
2013-02-13 10:26:00,44.1,11.3,30.04,WNW,294,14.0,21.0,26,0.00,,,0.00,meteohub,2013-02-13 17:26:00,
2013-02-13 10:27:00,44.1,11.3,30.04,NW,319,11.0,21.0,26,0.00,,,0.00,meteohub,2013-02-13 17:27:00,
2013-02-13 10:32:00,43.3,10.8,30.04,NNE,25,17.0,19.0,26,0.00,,,0.00,meteohub,2013-02-13 17:32:00,
2013-02-13 10:33:00,43.2,10.6,30.04,North,5,15.0,19.0,26,0.00,,,0.00,meteohub,2013-02-13 17:33:00,
2013-02-13 10:35:00,43.0,11.3,30.04,NNW,329,7.0,19.0,27,0.00,,,0.00,meteohub,2013-02-13 17:35:00,
2013-02-13 10:37:00,42.6,10.9,30.05,NW,322,7.0,21.0,27,0.00,,,0.00,meteohub,2013-02-13 17:37:00,
2013-02-13 10:39:00,42.4,11.7,30.05,West,278,5.0,21.0,28,0.00,,,0.00,meteohub,2013-02-13 17:39:00,
2013-02-13 10:40:00,42.4,11.7,30.05,NNW,331,11.0,21.0,28,0.00,,,0.00,meteohub,2013-02-13 17:40:00,
2013-02-13 10:41:00,42.4,11.7,30.05,NW,325,10.0,21.0,28,0.00,,,0.00,meteohub,2013-02-13 17:41:00,
2013-02-13 10:42:00,42.4,11.7,30.05,NNW,331,17.0,21.0,28,0.00,,,0.00,meteohub,2013-02-13 17:42:00,
2013-02-13 10:45:00,42.3,11.5,30.06,NW,324,10.0,21.0,28,0.00,,,0.00,meteohub,2013-02-13 17:45:00,
2013-02-13 10:46:00,42.3,11.5,30.05,NNW,331,8.0,21.0,28,0.00,,,0.00,meteohub,2013-02-13 17:46:00,
2013-02-13 10:49:00,42.1,11.3,30.06,WNW,286,10.0,21.0,28,0.00,,,0.00,meteohub,2013-02-13 17:49:00,
2013-02-13 10:50:00,42.1,12.0,30.05,NNW,336,10.0,18.0,29,0.00,,,0.00,meteohub,2013-02-13 17:50:00,
2013-02-13 10:51:00,42.1,12.0,30.06,West,280,12.0,18.0,29,0.00,,,0.00,meteohub,2013-02-13 17:51:00,
2013-02-13 10:52:00,42.1,12.0,30.05,NW,311,15.0,18.0,29,0.00,,,0.00,meteohub,2013-02-13 17:52:00,
2013-02-13 10:54:00,42.1,12.0,30.05,WNW,302,13.0,18.0,29,0.00,,,0.00,meteohub,2013-02-13 17:54:00,
2013-02-13 10:55:00,42.1,12.0,30.06,NW,315,18.0,22.0,29,0.00,,,0.00,meteohub,2013-02-13 17:55:00,
2013-02-13 10:57:00,41.9,12.0,30.05,NW,313,15.0,22.0,29,0.00,,,0.00,meteohub,2013-02-13 17:57:00,
2013-02-13 11:00:00,41.9,12.7,30.06,North,5,6.0,22.0,30,0.00,,,0.00,meteohub,2013-02-13 18:00:00,
2013-02-13 11:02:00,41.9,12.7,30.06,WNW,302,10.0,22.0,30,0.00,,,0.00,meteohub,2013-02-13 18:02:00,
2013-02-13 11:04:00,41.9,12.7,30.06,WNW,302,9.0,22.0,30,0.00,,,0.00,meteohub,2013-02-13 18:04:00,
2013-02-13 11:05:00,41.7,12.6,30.06,WNW,302,9.0,22.0,30,0.00,,,0.00,meteohub,2013-02-13 18:05:00,
2013-02-13 11:07:00,41.7,12.6,30.06,NNW,344,6.0,22.0,30,0.00,,,0.00,meteohub,2013-02-13 18:07:00,
2013-02-13 11:09:00,41.7,13.3,30.06,NNW,343,5.0,22.0,31,0.00,,,0.00,meteohub,2013-02-13 18:09:00,
2013-02-13 11:12:00,41.5,12.4,30.06,North,5,12.0,21.0,30,0.00,,,0.00,meteohub,2013-02-13 18:12:00,
2013-02-13 11:14:00,41.4,12.2,30.06,North,355,8.0,21.0,30,0.00,,,0.00,meteohub,2013-02-13 18:14:00,
2013-02-13 11:15:00,41.4,12.2,30.06,NNW,333,16.0,21.0,30,0.00,,,0.00,meteohub,2013-02-13 18:15:00,
2013-02-13 11:17:00,41.4,12.9,30.05,NNW,342,5.0,17.0,31,0.00,,,0.00,meteohub,2013-02-13 18:17:00,
2013-02-13 11:20:00,41.4,12.9,30.05,NW,311,8.0,18.0,31,0.00,,,0.00,meteohub,2013-02-13 18:20:00,
2013-02-13 11:22:00,41.4,12.9,30.05,NNW,328,11.0,18.0,31,0.00,,,0.00,meteohub,2013-02-13 18:22:00,
2013-02-13 11:25:00,41.4,12.9,30.05,North,349,8.0,19.0,31,0.00,,,0.00,meteohub,2013-02-13 18:25:00,
2013-02-13 11:27:00,41.4,12.9,30.06,NW,307,11.0,19.0,31,0.00,,,0.00,meteohub,2013-02-13 18:27:00,
2013-02-13 11:28:00,41.4,12.9,30.06,West,277,8.0,19.0,31,0.00,,,0.00,meteohub,2013-02-13 18:28:00,
2013-02-13 11:29:00,41.4,13.6,30.06,NW,312,5.0,19.0,32,0.00,,,0.00,meteohub,2013-02-13 18:29:00,
2013-02-13 11:31:00,41.4,13.6,30.06,NW,313,8.0,19.0,32,0.00,,,0.00,meteohub,2013-02-13 18:31:00,
2013-02-13 11:34:00,41.5,13.8,30.06,WNW,293,12.0,19.0,32,0.00,,,0.00,meteohub,2013-02-13 18:34:00,
2013-02-13 11:35:00,41.5,13.1,30.06,NW,321,9.0,19.0,31,0.00,,,0.00,meteohub,2013-02-13 18:35:00,
2013-02-13 11:37:00,41.7,13.3,30.06,WNW,287,9.0,19.0,31,0.00,,,0.00,meteohub,2013-02-13 18:37:00,
2013-02-13 11:40:00,41.9,13.5,30.06,WNW,286,10.0,19.0,31,0.00,,,0.00,meteohub,2013-02-13 18:40:00,
2013-02-13 11:41:00,41.9,13.5,30.05,WSW,250,5.0,16.0,31,0.00,,,0.00,meteohub,2013-02-13 18:41:00,
2013-02-13 11:45:00,42.3,13.8,30.05,West,269,9.0,17.0,31,0.00,,,0.00,meteohub,2013-02-13 18:45:00,
2013-02-13 11:46:00,42.3,13.8,30.05,West,281,9.0,17.0,31,0.00,,,0.00,meteohub,2013-02-13 18:46:00,
2013-02-13 11:47:00,42.3,13.8,30.05,NW,313,15.0,17.0,31,0.00,,,0.00,meteohub,2013-02-13 18:47:00,
2013-02-13 11:48:00,42.3,13.1,30.05,West,277,18.0,18.0,30,0.00,,,0.00,meteohub,2013-02-13 18:48:00,
2013-02-13 11:50:00,42.4,13.1,30.05,NW,319,15.0,25.0,30,0.00,,,0.00,meteohub,2013-02-13 18:50:00,
2013-02-13 11:51:00,42.4,13.1,30.04,WNW,296,16.0,25.0,30,0.00,,,0.00,meteohub,2013-02-13 18:51:00,
2013-02-13 11:54:00,42.4,14.0,30.04,NW,304,24.0,25.0,31,0.00,,,0.00,meteohub,2013-02-13 18:54:00,
2013-02-13 11:56:00,42.4,14.0,30.04,West,274,8.0,25.0,31,0.00,,,0.00,meteohub,2013-02-13 18:56:00,
2013-02-13 11:58:00,42.4,14.0,30.04,NW,319,9.0,25.0,31,0.00,,,0.00,meteohub,2013-02-13 18:58:00,
2013-02-13 12:01:00,42.4,14.0,30.04,NNW,347,14.0,25.0,31,0.00,,,0.00,meteohub,2013-02-13 19:01:00,
2013-02-13 12:02:00,42.4,14.0,30.04,West,268,5.0,25.0,31,0.00,,,0.00,meteohub,2013-02-13 19:02:00,
2013-02-13 12:03:00,42.6,13.3,30.04,WNW,288,9.0,25.0,30,0.00,,,0.00,meteohub,2013-02-13 19:03:00,
2013-02-13 12:04:00,42.6,14.0,30.05,NNW,329,14.0,25.0,31,0.00,,,0.00,meteohub,2013-02-13 19:04:00,
2013-02-13 12:07:00,42.6,14.0,30.04,NW,306,10.0,24.0,31,0.00,,,0.00,meteohub,2013-02-13 19:07:00,
2013-02-13 12:09:00,42.6,13.3,30.04,WNW,288,9.0,24.0,30,0.00,,,0.00,meteohub,2013-02-13 19:09:00,
2013-02-13 12:11:00,42.8,14.2,30.04,NNW,337,11.0,22.0,31,0.00,,,0.00,meteohub,2013-02-13 19:11:00,
2013-02-13 12:13:00,42.8,13.5,30.04,NNW,331,14.0,22.0,30,0.00,,,0.00,meteohub,2013-02-13 19:13:00,
2013-02-13 12:17:00,43.0,13.6,30.04,NW,315,21.0,27.0,30,0.00,,,0.00,meteohub,2013-02-13 19:17:00,
2013-02-13 12:19:00,42.6,13.3,30.04,NW,317,15.0,27.0,30,0.00,,,0.00,meteohub,2013-02-13 19:19:00,
2013-02-13 12:21:00,42.6,14.0,30.03,WNW,296,25.0,33.0,31,0.00,,,0.00,meteohub,2013-02-13 19:21:00,
2013-02-13 12:22:00,42.6,14.0,30.03,WNW,294,20.0,33.0,31,0.00,,,0.00,meteohub,2013-02-13 19:22:00,
2013-02-13 12:25:00,42.8,14.2,30.03,NW,304,17.0,33.0,31,0.00,,,0.00,meteohub,2013-02-13 19:25:00,
2013-02-13 12:28:00,43.3,14.7,30.04,West,273,12.0,33.0,31,0.00,,,0.00,meteohub,2013-02-13 19:28:00,
2013-02-13 12:31:00,43.9,15.3,30.04,NW,321,14.0,33.0,31,0.00,,,0.00,meteohub,2013-02-13 19:31:00,
2013-02-13 12:32:00,44.1,14.5,30.04,West,274,15.0,33.0,30,0.00,,,0.00,meteohub,2013-02-13 19:32:00,
2013-02-13 12:34:00,44.2,14.7,30.03,WNW,282,13.0,33.0,30,0.00,,,0.00,meteohub,2013-02-13 19:34:00,
2013-02-13 12:37:00,44.6,15.1,30.04,West,277,12.0,30.0,30,0.00,,,0.00,meteohub,2013-02-13 19:37:00,
2013-02-13 12:39:00,45.0,14.5,30.04,NW,318,6.0,30.0,29,0.00,,,0.00,meteohub,2013-02-13 19:39:00,
2013-02-13 12:40:00,45.0,14.5,30.04,WNW,284,13.0,30.0,29,0.00,,,0.00,meteohub,2013-02-13 19:40:00,
2013-02-13 12:42:00,45.3,14.2,30.04,WNW,288,13.0,30.0,28,0.00,,,0.00,meteohub,2013-02-13 19:42:00,
2013-02-13 12:43:00,45.3,14.2,30.04,West,273,13.0,30.0,28,0.00,,,0.00,meteohub,2013-02-13 19:43:00,
2013-02-13 12:44:00,45.3,14.2,30.04,WNW,284,18.0,30.0,28,0.00,,,0.00,meteohub,2013-02-13 19:44:00,
2013-02-13 12:46:00,45.3,14.2,30.04,WNW,282,15.0,30.0,28,0.00,,,0.00,meteohub,2013-02-13 19:46:00,
2013-02-13 12:47:00,45.5,14.4,30.04,NNW,333,12.0,30.0,28,0.00,,,0.00,meteohub,2013-02-13 19:47:00,
2013-02-13 12:49:00,45.5,14.4,30.04,WNW,283,13.0,30.0,28,0.00,,,0.00,meteohub,2013-02-13 19:49:00,
2013-02-13 12:50:00,45.5,14.4,30.04,WNW,303,21.0,30.0,28,0.00,,,0.00,meteohub,2013-02-13 19:50:00,
2013-02-13 12:52:00,45.7,14.4,30.04,West,273,10.0,26.0,28,0.00,,,0.00,meteohub,2013-02-13 19:52:00,
2013-02-13 12:54:00,45.7,14.4,30.04,WNW,295,14.0,26.0,28,0.00,,,0.00,meteohub,2013-02-13 19:54:00,
2013-02-13 12:55:00,45.7,14.4,30.04,NW,305,11.0,26.0,28,0.00,,,0.00,meteohub,2013-02-13 19:55:00,
2013-02-13 12:56:00,45.7,13.6,30.04,West,266,15.0,26.0,27,0.00,,,0.00,meteohub,2013-02-13 19:56:00,
2013-02-13 12:57:00,45.9,14.5,30.04,NW,311,10.0,26.0,28,0.00,,,0.00,meteohub,2013-02-13 19:57:00,
2013-02-13 13:01:00,46.2,14.9,30.04,NNW,342,5.0,26.0,28,0.00,,,0.00,meteohub,2013-02-13 20:01:00,
2013-02-13 13:02:00,46.2,14.0,30.04,WNW,303,16.0,26.0,27,0.00,,,0.00,meteohub,2013-02-13 20:02:00,
2013-02-13 13:06:00,46.4,14.2,30.03,NW,308,16.0,23.0,27,0.00,,,0.00,meteohub,2013-02-13 20:06:00,
2013-02-13 13:07:00,46.6,14.4,30.03,NW,311,8.0,23.0,27,0.00,,,0.00,meteohub,2013-02-13 20:07:00,
2013-02-13 13:08:00,46.6,14.4,30.03,West,272,15.0,23.0,27,0.00,,,0.00,meteohub,2013-02-13 20:08:00,
2013-02-13 13:12:00,46.8,14.5,30.03,NW,321,21.0,23.0,27,0.00,,,0.00,meteohub,2013-02-13 20:12:00,
2013-02-13 13:13:00,46.8,14.5,30.03,WNW,288,12.0,23.0,27,0.00,,,0.00,meteohub,2013-02-13 20:13:00,
2013-02-13 13:15:00,46.4,14.2,30.03,WNW,293,11.0,23.0,27,0.00,,,0.00,meteohub,2013-02-13 20:15:00,
2013-02-13 13:18:00,46.2,14.0,30.03,NNW,327,25.0,28.0,27,0.00,,,0.00,meteohub,2013-02-13 20:18:00,
2013-02-13 13:19:00,46.0,14.0,30.03,NW,309,16.0,28.0,27,0.00,,,0.00,meteohub,2013-02-13 20:19:00,
2013-02-13 13:20:00,46.0,14.0,30.03,WNW,302,18.0,28.0,27,0.00,,,0.00,meteohub,2013-02-13 20:20:00,
2013-02-13 13:21:00,45.9,13.8,30.03,WNW,300,22.0,29.0,27,0.00,,,0.00,meteohub,2013-02-13 20:21:00,
2013-02-13 13:24:00,45.5,14.4,30.03,North,355,14.0,29.0,28,0.00,,,0.00,meteohub,2013-02-13 20:24:00,
2013-02-13 13:25:00,45.5,14.4,30.03,NNW,332,11.0,29.0,28,0.00,,,0.00,meteohub,2013-02-13 20:25:00,
2013-02-13 13:26:00,45.3,14.2,30.03,NW,326,13.0,36.0,28,0.00,,,0.00,meteohub,2013-02-13 20:26:00,
2013-02-13 13:27:00,45.3,14.2,30.03,West,279,23.0,36.0,28,0.00,,,0.00,meteohub,2013-02-13 20:27:00,
2013-02-13 13:29:00,45.1,14.0,30.03,NW,321,14.0,36.0,28,0.00,,,0.00,meteohub,2013-02-13 20:29:00,
2013-02-13 13:30:00,45.1,14.0,30.03,NW,309,8.0,36.0,28,0.00,,,0.00,meteohub,2013-02-13 20:30:00,
2013-02-13 13:31:00,45.1,14.0,30.03,NW,313,17.0,36.0,28,0.00,,,0.00,meteohub,2013-02-13 20:31:00,
2013-02-13 13:32:00,45.0,13.8,30.03,NW,315,12.0,36.0,28,0.00,,,0.00,meteohub,2013-02-13 20:32:00,
2013-02-13 13:37:00,44.8,13.6,30.03,NW,311,19.0,36.0,28,0.00,,,0.00,meteohub,2013-02-13 20:37:00,
2013-02-13 13:38:00,44.4,13.3,30.03,NW,306,21.0,36.0,28,0.00,,,0.00,meteohub,2013-02-13 20:38:00,
2013-02-13 13:42:00,44.1,13.8,30.03,NW,322,13.0,35.0,29,0.00,,,0.00,meteohub,2013-02-13 20:42:00,
2013-02-13 13:43:00,43.9,13.6,30.04,West,274,34.0,35.0,29,0.00,,,0.00,meteohub,2013-02-13 20:43:00,
2013-02-13 13:44:00,43.5,13.3,30.03,WNW,296,18.0,35.0,29,0.00,,,0.00,meteohub,2013-02-13 20:44:00,
2013-02-13 13:47:00,43.2,13.8,30.03,WNW,297,22.0,28.0,30,0.00,,,0.00,meteohub,2013-02-13 20:47:00,
2013-02-13 13:48:00,43.0,13.6,30.03,WNW,294,16.0,28.0,30,0.00,,,0.00,meteohub,2013-02-13 20:48:00,
2013-02-13 13:51:00,42.6,13.3,30.03,West,269,12.0,34.0,30,0.00,,,0.00,meteohub,2013-02-13 20:51:00,
2013-02-13 13:52:00,42.6,13.3,30.03,WNW,292,24.0,34.0,30,0.00,,,0.00,meteohub,2013-02-13 20:52:00,
2013-02-13 13:54:00,42.6,13.3,30.03,NNW,327,20.0,34.0,30,0.00,,,0.00,meteohub,2013-02-13 20:54:00,
2013-02-13 13:55:00,42.6,13.3,30.02,WNW,298,21.0,34.0,30,0.00,,,0.00,meteohub,2013-02-13 20:55:00,
2013-02-13 13:57:00,42.6,14.0,30.02,West,278,8.0,34.0,31,0.00,,,0.00,meteohub,2013-02-13 20:57:00,
2013-02-13 13:59:00,42.6,13.3,30.02,NW,321,12.0,34.0,30,0.00,,,0.00,meteohub,2013-02-13 20:59:00,
2013-02-13 14:00:00,42.6,13.3,30.03,NW,321,18.0,34.0,30,0.00,,,0.00,meteohub,2013-02-13 21:00:00,
2013-02-13 14:02:00,42.6,13.3,30.03,NW,308,19.0,30.0,30,0.00,,,0.00,meteohub,2013-02-13 21:02:00,
2013-02-13 14:04:00,42.6,13.3,30.03,NW,317,15.0,30.0,30,0.00,,,0.00,meteohub,2013-02-13 21:04:00,
2013-02-13 14:05:00,42.6,13.3,30.02,NNW,333,24.0,38.0,30,0.00,,,0.00,meteohub,2013-02-13 21:05:00,
2013-02-13 14:09:00,42.4,14.0,30.02,NW,306,22.0,38.0,31,0.00,,,0.00,meteohub,2013-02-13 21:09:00,
2013-02-13 14:10:00,42.4,14.0,30.02,WSW,254,24.0,38.0,31,0.00,,,0.00,meteohub,2013-02-13 21:10:00,
2013-02-13 14:11:00,42.4,14.0,30.02,NNW,327,18.0,38.0,31,0.00,,,0.00,meteohub,2013-02-13 21:11:00,
2013-02-13 14:12:00,42.3,13.8,30.02,NW,317,16.0,38.0,31,0.00,,,0.00,meteohub,2013-02-13 21:12:00,
2013-02-13 14:14:00,42.3,13.8,30.01,WNW,291,13.0,38.0,31,0.00,,,0.00,meteohub,2013-02-13 21:14:00,
2013-02-13 14:15:00,42.3,13.8,30.02,NW,306,20.0,38.0,31,0.00,,,0.00,meteohub,2013-02-13 21:15:00,
2013-02-13 14:16:00,42.3,13.8,30.02,WNW,286,18.0,34.0,31,0.00,,,0.00,meteohub,2013-02-13 21:16:00,
2013-02-13 14:19:00,42.3,13.8,30.01,WNW,291,13.0,34.0,31,0.00,,,0.00,meteohub,2013-02-13 21:19:00,
2013-02-13 14:20:00,42.3,13.8,30.02,NW,311,12.0,35.0,31,0.00,,,0.00,meteohub,2013-02-13 21:20:00,
2013-02-13 14:22:00,42.3,13.8,30.01,NNW,329,14.0,35.0,31,0.00,,,0.00,meteohub,2013-02-13 21:22:00,
2013-02-13 14:25:00,42.3,13.8,30.01,West,261,19.0,35.0,31,0.00,,,0.00,meteohub,2013-02-13 21:25:00,
2013-02-13 14:26:00,42.3,13.8,30.01,West,281,28.0,35.0,31,0.00,,,0.00,meteohub,2013-02-13 21:26:00,
2013-02-13 14:27:00,42.3,13.8,30.01,NW,321,25.0,35.0,31,0.00,,,0.00,meteohub,2013-02-13 21:27:00,
2013-02-13 14:30:00,42.3,14.5,30.01,West,281,20.0,35.0,32,0.00,,,0.00,meteohub,2013-02-13 21:30:00,
2013-02-13 14:31:00,42.4,14.7,30.01,NW,313,9.0,35.0,32,0.00,,,0.00,meteohub,2013-02-13 21:31:00,
2013-02-13 14:32:00,42.4,14.7,30.01,West,273,14.0,35.0,32,0.00,,,0.00,meteohub,2013-02-13 21:32:00,
2013-02-13 14:34:00,42.4,14.7,30.01,NW,306,12.0,35.0,32,0.00,,,0.00,meteohub,2013-02-13 21:34:00,
2013-02-13 14:35:00,42.6,14.9,30.01,NW,309,22.0,34.0,32,0.00,,,0.00,meteohub,2013-02-13 21:35:00,
2013-02-13 14:38:00,42.8,14.9,30.01,West,275,31.0,34.0,32,0.00,,,0.00,meteohub,2013-02-13 21:38:00,
2013-02-13 14:41:00,43.2,14.5,30.01,WNW,299,16.0,34.0,31,0.00,,,0.00,meteohub,2013-02-13 21:41:00,
2013-02-13 14:44:00,43.2,14.5,30.01,NW,307,33.0,34.0,31,0.00,,,0.00,meteohub,2013-02-13 21:44:00,
2013-02-13 14:46:00,43.2,14.5,30.01,WNW,295,24.0,37.0,31,0.00,,,0.00,meteohub,2013-02-13 21:46:00,
2013-02-13 14:47:00,43.2,14.5,30.01,NW,320,16.0,37.0,31,0.00,,,0.00,meteohub,2013-02-13 21:47:00,
2013-02-13 14:51:00,43.3,14.7,30.01,WNW,293,19.0,37.0,31,0.00,,,0.00,meteohub,2013-02-13 21:51:00,
2013-02-13 14:52:00,43.3,14.7,30.01,WNW,290,24.0,37.0,31,0.00,,,0.00,meteohub,2013-02-13 21:52:00,
2013-02-13 14:57:00,43.3,14.7,30.02,NW,310,22.0,37.0,31,0.00,,,0.00,meteohub,2013-02-13 21:57:00,
2013-02-13 14:58:00,43.3,14.7,30.02,NNW,327,18.0,37.0,31,0.00,,,0.00,meteohub,2013-02-13 21:58:00,
2013-02-13 15:02:00,43.5,14.9,30.01,WNW,284,9.0,32.0,31,0.00,,,0.00,meteohub,2013-02-13 22:02:00,
2013-02-13 15:03:00,43.7,15.1,30.01,WNW,288,21.0,32.0,31,0.00,,,0.00,meteohub,2013-02-13 22:03:00,
2013-02-13 15:05:00,43.9,15.3,30.01,NW,315,26.0,32.0,31,0.00,,,0.00,meteohub,2013-02-13 22:05:00,
2013-02-13 15:07:00,43.9,15.3,30.02,West,278,17.0,34.0,31,0.00,,,0.00,meteohub,2013-02-13 22:07:00,
2013-02-13 15:09:00,44.1,15.3,30.02,WNW,298,17.0,34.0,31,0.00,,,0.00,meteohub,2013-02-13 22:09:00,
2013-02-13 15:10:00,44.1,15.3,30.02,NW,312,26.0,34.0,31,0.00,,,0.00,meteohub,2013-02-13 22:10:00,
2013-02-13 15:12:00,44.1,15.3,30.01,WNW,284,22.0,35.0,31,0.00,,,0.00,meteohub,2013-02-13 22:12:00,
2013-02-13 15:15:00,44.1,15.3,30.03,NW,304,14.0,35.0,31,0.00,,,0.00,meteohub,2013-02-13 22:15:00,
2013-02-13 15:18:00,44.1,15.3,30.03,WNW,288,12.0,35.0,31,0.00,,,0.00,meteohub,2013-02-13 22:18:00,
2013-02-13 15:19:00,44.1,15.3,30.03,West,268,16.0,35.0,31,0.00,,,0.00,meteohub,2013-02-13 22:19:00,
2013-02-13 15:20:00,44.2,15.4,30.03,West,277,17.0,35.0,31,0.00,,,0.00,meteohub,2013-02-13 22:20:00,
2013-02-13 15:23:00,44.2,15.4,30.03,NW,312,11.0,35.0,31,0.00,,,0.00,meteohub,2013-02-13 22:23:00,
2013-02-13 15:24:00,44.1,15.3,30.03,WNW,296,21.0,35.0,31,0.00,,,0.00,meteohub,2013-02-13 22:24:00,
2013-02-13 15:25:00,44.1,15.3,30.03,NW,308,19.0,31.0,31,0.00,,,0.00,meteohub,2013-02-13 22:25:00,
2013-02-13 15:27:00,44.1,15.3,30.03,NW,319,16.0,31.0,31,0.00,,,0.00,meteohub,2013-02-13 22:27:00,
2013-02-13 15:28:00,44.1,15.3,30.03,NW,325,16.0,31.0,31,0.00,,,0.00,meteohub,2013-02-13 22:28:00,
2013-02-13 15:30:00,43.9,15.3,30.03,North,355,16.0,31.0,31,0.00,,,0.00,meteohub,2013-02-13 22:30:00,
2013-02-13 15:32:00,43.7,15.1,30.04,NW,316,16.0,29.0,31,0.00,,,0.00,meteohub,2013-02-13 22:32:00,
2013-02-13 15:34:00,43.5,14.9,30.04,WNW,302,17.0,29.0,31,0.00,,,0.00,meteohub,2013-02-13 22:34:00,
2013-02-13 15:35:00,43.5,14.9,30.04,WNW,303,7.0,29.0,31,0.00,,,0.00,meteohub,2013-02-13 22:35:00,
2013-02-13 15:39:00,43.5,15.6,30.04,WNW,293,18.0,29.0,32,0.00,,,0.00,meteohub,2013-02-13 22:39:00,
2013-02-13 15:40:00,43.5,14.9,30.03,NW,322,18.0,29.0,31,0.00,,,0.00,meteohub,2013-02-13 22:40:00,
2013-02-13 15:41:00,43.5,14.9,30.03,NW,318,18.0,29.0,31,0.00,,,0.00,meteohub,2013-02-13 22:41:00,
2013-02-13 15:46:00,43.3,14.7,30.02,NW,325,11.0,30.0,31,0.00,,,0.00,meteohub,2013-02-13 22:46:00,
2013-02-13 15:47:00,43.3,14.7,30.02,NW,311,10.0,30.0,31,0.00,,,0.00,meteohub,2013-02-13 22:47:00,
2013-02-13 15:51:00,43.5,14.2,30.02,West,273,14.0,30.0,30,0.00,,,0.00,meteohub,2013-02-13 22:51:00,
2013-02-13 15:52:00,43.5,14.2,30.03,West,280,22.0,30.0,30,0.00,,,0.00,meteohub,2013-02-13 22:52:00,
2013-02-13 15:53:00,43.5,14.2,30.03,NW,304,22.0,30.0,30,0.00,,,0.00,meteohub,2013-02-13 22:53:00,
2013-02-13 15:57:00,43.5,14.2,30.03,West,281,14.0,32.0,30,0.00,,,0.00,meteohub,2013-02-13 22:57:00,
2013-02-13 15:58:00,43.5,14.2,30.03,WNW,289,9.0,32.0,30,0.00,,,0.00,meteohub,2013-02-13 22:58:00,
2013-02-13 15:59:00,43.5,14.9,30.02,NNW,341,8.0,32.0,31,0.00,,,0.00,meteohub,2013-02-13 22:59:00,
2013-02-13 16:01:00,43.7,15.1,30.02,WNW,284,13.0,32.0,31,0.00,,,0.00,meteohub,2013-02-13 23:01:00,
2013-02-13 16:05:00,43.9,15.3,30.02,NW,318,7.0,32.0,31,0.00,,,0.00,meteohub,2013-02-13 23:05:00,
2013-02-13 16:06:00,43.9,15.3,30.03,West,281,12.0,32.0,31,0.00,,,0.00,meteohub,2013-02-13 23:06:00,
2013-02-13 16:07:00,44.1,15.3,30.02,NW,320,14.0,32.0,31,0.00,,,0.00,meteohub,2013-02-13 23:07:00,
2013-02-13 16:08:00,44.1,14.5,30.02,NW,321,16.0,32.0,30,0.00,,,0.00,meteohub,2013-02-13 23:08:00,
2013-02-13 16:11:00,44.2,14.7,30.02,WNW,284,23.0,25.0,30,0.00,,,0.00,meteohub,2013-02-13 23:11:00,
2013-02-13 16:12:00,44.2,14.7,30.02,WNW,299,17.0,25.0,30,0.00,,,0.00,meteohub,2013-02-13 23:12:00,
2013-02-13 16:14:00,44.2,14.7,30.02,North,355,13.0,25.0,30,0.00,,,0.00,meteohub,2013-02-13 23:14:00,
2013-02-13 16:16:00,44.2,14.7,30.02,WNW,284,12.0,25.0,30,0.00,,,0.00,meteohub,2013-02-13 23:16:00,
2013-02-13 16:17:00,44.4,14.9,30.02,NW,319,12.0,25.0,30,0.00,,,0.00,meteohub,2013-02-13 23:17:00,
2013-02-13 16:21:00,44.4,14.2,30.02,NW,324,15.0,25.0,29,0.00,,,0.00,meteohub,2013-02-13 23:21:00,
2013-02-13 16:22:00,44.4,14.2,30.02,WNW,298,23.0,25.0,29,0.00,,,0.00,meteohub,2013-02-13 23:22:00,
2013-02-13 16:27:00,44.4,14.2,30.02,West,259,19.0,25.0,29,0.00,,,0.00,meteohub,2013-02-13 23:27:00,
2013-02-13 16:28:00,44.4,14.2,30.01,WNW,298,6.0,25.0,29,0.00,,,0.00,meteohub,2013-02-13 23:28:00,
2013-02-13 16:32:00,44.4,14.2,30.02,West,269,6.0,24.0,29,0.00,,,0.00,meteohub,2013-02-13 23:32:00,
2013-02-13 16:33:00,44.4,14.2,30.02,WSW,258,13.0,24.0,29,0.00,,,0.00,meteohub,2013-02-13 23:33:00,
2013-02-13 16:34:00,44.4,14.2,30.02,West,273,7.0,24.0,29,0.00,,,0.00,meteohub,2013-02-13 23:34:00,
2013-02-13 16:38:00,44.4,14.2,30.02,West,281,15.0,24.0,29,0.00,,,0.00,meteohub,2013-02-13 23:38:00,
2013-02-13 16:39:00,44.4,14.2,30.02,WNW,297,10.0,24.0,29,0.00,,,0.00,meteohub,2013-02-13 23:39:00,
2013-02-13 16:40:00,44.4,14.2,30.02,WNW,289,7.0,22.0,29,0.00,,,0.00,meteohub,2013-02-13 23:40:00,
2013-02-13 16:44:00,44.2,14.0,30.02,West,279,8.0,22.0,29,0.00,,,0.00,meteohub,2013-02-13 23:44:00,
2013-02-13 16:45:00,44.2,14.0,30.02,West,273,14.0,22.0,29,0.00,,,0.00,meteohub,2013-02-13 23:45:00,
2013-02-13 16:47:00,44.2,14.0,30.02,NW,308,7.0,22.0,29,0.00,,,0.00,meteohub,2013-02-13 23:47:00,
2013-02-13 16:49:00,44.1,13.8,30.02,WNW,290,5.0,22.0,29,0.00,,,0.00,meteohub,2013-02-13 23:49:00,
2013-02-13 16:50:00,44.1,13.8,30.02,SW,235,5.0,22.0,29,0.00,,,0.00,meteohub,2013-02-13 23:50:00,
2013-02-13 16:51:00,44.1,13.8,30.02,WSW,242,5.0,21.0,29,0.00,,,0.00,meteohub,2013-02-13 23:51:00,
2013-02-13 16:52:00,44.1,13.8,30.02,West,269,10.0,21.0,29,0.00,,,0.00,meteohub,2013-02-13 23:52:00,
2013-02-13 16:56:00,43.9,13.6,30.03,WSW,240,6.0,21.0,29,0.00,,,0.00,meteohub,2013-02-13 23:56:00,
2013-02-13 16:57:00,43.7,13.5,30.02,WSW,246,7.0,21.0,29,0.00,,,0.00,meteohub,2013-02-13 23:57:00,
2013-02-13 17:00:00,43.5,13.3,30.02,WSW,257,8.0,13.0,29,0.00,,,0.00,meteohub,2013-02-14 00:00:00,
2013-02-13 17:01:00,43.5,13.3,30.02,West,271,9.0,13.0,29,0.00,,,0.00,meteohub,2013-02-14 00:01:00,
2013-02-13 17:02:00,43.3,13.3,30.02,WNW,288,11.0,13.0,29,0.00,,,0.00,meteohub,2013-02-14 00:02:00,
2013-02-13 17:03:00,43.3,13.3,30.02,SW,234,4.0,13.0,29,0.00,,,0.00,meteohub,2013-02-14 00:03:00,
2013-02-13 17:06:00,43.2,13.1,30.02,NW,304,12.0,13.0,29,0.00,,,0.00,meteohub,2013-02-14 00:06:00,
2013-02-13 17:07:00,43.2,13.1,30.02,West,277,14.0,14.0,29,0.00,,,0.00,meteohub,2013-02-14 00:07:00,
2013-02-13 17:09:00,43.0,13.6,30.02,WNW,287,9.0,13.0,30,0.00,,,0.00,meteohub,2013-02-14 00:09:00,
2013-02-13 17:11:00,43.0,13.6,30.02,NW,323,19.0,19.0,30,0.00,,,0.00,meteohub,2013-02-14 00:11:00,
2013-02-13 17:12:00,43.0,13.6,30.02,West,263,14.0,18.0,30,0.00,,,0.00,meteohub,2013-02-14 00:12:00,
2013-02-13 17:15:00,42.6,13.3,30.02,NW,315,10.0,18.0,30,0.00,,,0.00,meteohub,2013-02-14 00:15:00,
2013-02-13 17:17:00,42.4,13.1,30.01,NW,315,11.0,22.0,30,0.00,,,0.00,meteohub,2013-02-14 00:17:00,
2013-02-13 17:20:00,42.4,14.0,30.01,West,263,10.0,22.0,31,0.00,,,0.00,meteohub,2013-02-14 00:20:00,
2013-02-13 17:22:00,42.3,13.8,30.01,West,279,13.0,22.0,31,0.00,,,0.00,meteohub,2013-02-14 00:22:00,
2013-02-13 17:23:00,42.3,13.8,30.01,West,270,12.0,22.0,31,0.00,,,0.00,meteohub,2013-02-14 00:23:00,
2013-02-13 17:27:00,42.1,13.6,30.01,WNW,295,7.0,23.0,31,0.00,,,0.00,meteohub,2013-02-14 00:27:00,
2013-02-13 17:28:00,41.9,13.5,30.01,WSW,256,10.0,23.0,31,0.00,,,0.00,meteohub,2013-02-14 00:28:00,
2013-02-13 17:29:00,41.9,13.5,30.02,NW,321,12.0,23.0,31,0.00,,,0.00,meteohub,2013-02-14 00:29:00,
2013-02-13 17:30:00,41.7,13.3,30.01,NW,304,6.0,23.0,31,0.00,,,0.00,meteohub,2013-02-14 00:30:00,
2013-02-13 17:33:00,41.7,13.3,30.02,West,271,11.0,23.0,31,0.00,,,0.00,meteohub,2013-02-14 00:33:00,
2013-02-13 17:35:00,41.5,13.1,30.02,WNW,299,9.0,23.0,31,0.00,,,0.00,meteohub,2013-02-14 00:35:00,
2013-02-13 17:36:00,41.5,13.1,30.02,WNW,292,6.0,23.0,31,0.00,,,0.00,meteohub,2013-02-14 00:36:00,
2013-02-13 17:37:00,41.5,13.1,30.02,NW,309,5.0,23.0,31,0.00,,,0.00,meteohub,2013-02-14 00:37:00,
2013-02-13 17:39:00,41.4,12.9,30.02,West,278,15.0,23.0,31,0.00,,,0.00,meteohub,2013-02-14 00:39:00,
2013-02-13 17:40:00,41.4,13.6,30.02,West,281,6.0,20.0,32,0.00,,,0.00,meteohub,2013-02-14 00:40:00,
2013-02-13 17:41:00,41.4,13.6,30.02,WNW,299,19.0,20.0,32,0.00,,,0.00,meteohub,2013-02-14 00:41:00,
2013-02-13 17:44:00,41.2,13.5,30.02,WNW,296,12.0,20.0,32,0.00,,,0.00,meteohub,2013-02-14 00:44:00,
2013-02-13 17:45:00,41.2,13.5,30.02,WNW,300,7.0,20.0,32,0.00,,,0.00,meteohub,2013-02-14 00:45:00,
2013-02-13 17:46:00,41.2,13.5,30.02,WNW,292,5.0,24.0,32,0.00,,,0.00,meteohub,2013-02-14 00:46:00,
2013-02-13 17:47:00,41.2,13.5,30.02,West,280,14.0,24.0,32,0.00,,,0.00,meteohub,2013-02-14 00:47:00,
2013-02-13 17:50:00,41.0,13.5,30.02,WNW,292,21.0,24.0,32,0.00,,,0.00,meteohub,2013-02-14 00:50:00,
2013-02-13 17:51:00,40.8,13.3,30.02,NNW,327,9.0,24.0,32,0.00,,,0.00,meteohub,2013-02-14 00:51:00,
2013-02-13 17:55:00,40.8,13.3,30.02,WNW,284,13.0,24.0,32,0.00,,,0.00,meteohub,2013-02-14 00:55:00,
2013-02-13 17:56:00,40.8,13.3,30.02,West,271,10.0,24.0,32,0.00,,,0.00,meteohub,2013-02-14 00:56:00,
2013-02-13 17:57:00,40.8,13.3,30.02,WNW,286,6.0,24.0,32,0.00,,,0.00,meteohub,2013-02-14 00:57:00,
2013-02-13 18:00:00,40.6,13.1,30.02,West,281,9.0,24.0,32,0.00,,,0.00,meteohub,2013-02-14 01:00:00,
2013-02-13 18:01:00,40.6,13.1,30.02,West,281,11.0,24.0,32,0.00,,,0.00,meteohub,2013-02-14 01:01:00,
2013-02-13 18:03:00,40.6,13.1,30.02,West,275,8.0,24.0,32,0.00,,,0.00,meteohub,2013-02-14 01:03:00,
2013-02-13 18:05:00,40.6,13.1,30.02,WNW,296,6.0,24.0,32,0.00,,,0.00,meteohub,2013-02-14 01:05:00,
2013-02-13 18:07:00,40.5,12.9,30.02,NW,309,10.0,22.0,32,0.00,,,0.00,meteohub,2013-02-14 01:07:00,
2013-02-13 18:09:00,40.5,13.6,30.02,NW,317,13.0,22.0,33,0.00,,,0.00,meteohub,2013-02-14 01:09:00,
2013-02-13 18:12:00,40.3,13.5,30.02,NW,304,9.0,20.0,33,0.00,,,0.00,meteohub,2013-02-14 01:12:00,
2013-02-13 18:13:00,40.3,13.5,30.02,WNW,285,13.0,20.0,33,0.00,,,0.00,meteohub,2013-02-14 01:13:00,
2013-02-13 18:15:00,40.3,13.5,30.03,WSW,250,15.0,20.0,33,0.00,,,0.00,meteohub,2013-02-14 01:15:00,
2013-02-13 18:18:00,40.1,13.3,30.03,West,272,11.0,19.0,33,0.00,,,0.00,meteohub,2013-02-14 01:18:00,
2013-02-13 18:20:00,40.1,13.3,30.03,West,278,5.0,19.0,33,0.00,,,0.00,meteohub,2013-02-14 01:20:00,
2013-02-13 18:21:00,40.1,13.3,30.03,WNW,287,7.0,19.0,33,0.00,,,0.00,meteohub,2013-02-14 01:21:00,
2013-02-13 18:25:00,39.9,13.1,30.03,WNW,298,6.0,19.0,33,0.00,,,0.00,meteohub,2013-02-14 01:25:00,
2013-02-13 18:26:00,39.9,13.1,30.03,West,268,8.0,19.0,33,0.00,,,0.00,meteohub,2013-02-14 01:26:00,
2013-02-13 18:27:00,39.9,13.1,30.03,NW,309,6.0,19.0,33,0.00,,,0.00,meteohub,2013-02-14 01:27:00,
2013-02-13 18:28:00,39.9,13.1,30.03,West,274,7.0,19.0,33,0.00,,,0.00,meteohub,2013-02-14 01:28:00,
2013-02-13 18:30:00,39.9,13.1,30.03,NNW,334,5.0,15.0,33,0.00,,,0.00,meteohub,2013-02-14 01:30:00,
2013-02-13 18:31:00,39.7,12.9,30.03,West,275,8.0,15.0,33,0.00,,,0.00,meteohub,2013-02-14 01:31:00,
2013-02-13 18:32:00,39.7,12.9,30.03,NW,306,10.0,15.0,33,0.00,,,0.00,meteohub,2013-02-14 01:32:00,
2013-02-13 18:36:00,39.7,12.9,30.03,WNW,288,8.0,17.0,33,0.00,,,0.00,meteohub,2013-02-14 01:36:00,
2013-02-13 18:37:00,39.7,12.9,30.03,NNW,335,7.0,17.0,33,0.00,,,0.00,meteohub,2013-02-14 01:37:00,
2013-02-13 18:38:00,39.7,12.9,30.03,WNW,293,16.0,17.0,33,0.00,,,0.00,meteohub,2013-02-14 01:38:00,
2013-02-13 18:41:00,39.7,12.9,30.03,NW,325,7.0,19.0,33,0.00,,,0.00,meteohub,2013-02-14 01:41:00,
2013-02-13 18:42:00,39.7,12.9,30.03,NW,321,10.0,19.0,33,0.00,,,0.00,meteohub,2013-02-14 01:42:00,
2013-02-13 18:43:00,39.7,12.9,30.03,WNW,294,12.0,19.0,33,0.00,,,0.00,meteohub,2013-02-14 01:43:00,
2013-02-13 18:45:00,39.7,12.2,30.03,NW,308,4.0,19.0,32,0.00,,,0.00,meteohub,2013-02-14 01:45:00,
2013-02-13 18:47:00,39.7,12.2,30.03,NW,309,7.0,19.0,32,0.00,,,0.00,meteohub,2013-02-14 01:47:00,
2013-02-13 18:49:00,39.7,12.2,30.04,NW,325,4.0,19.0,32,0.00,,,0.00,meteohub,2013-02-14 01:49:00,
2013-02-13 18:51:00,39.6,12.2,30.04,WNW,300,8.0,19.0,32,0.00,,,0.00,meteohub,2013-02-14 01:51:00,
2013-02-13 18:53:00,39.6,12.2,30.04,WNW,286,8.0,19.0,32,0.00,,,0.00,meteohub,2013-02-14 01:53:00,
2013-02-13 18:54:00,39.6,12.2,30.04,NW,323,7.0,19.0,32,0.00,,,0.00,meteohub,2013-02-14 01:54:00,
2013-02-13 18:57:00,39.4,12.0,30.04,NW,321,9.0,18.0,32,0.00,,,0.00,meteohub,2013-02-14 01:57:00,
2013-02-13 18:58:00,39.4,12.0,30.04,WNW,290,8.0,18.0,32,0.00,,,0.00,meteohub,2013-02-14 01:58:00,
2013-02-13 18:59:00,39.4,12.7,30.04,NW,317,12.0,18.0,33,0.00,,,0.00,meteohub,2013-02-14 01:59:00,
2013-02-13 19:01:00,39.4,12.7,30.04,NNW,344,6.0,18.0,33,0.00,,,0.00,meteohub,2013-02-14 02:01:00,
2013-02-13 19:03:00,39.4,12.7,30.04,NW,323,7.0,18.0,33,0.00,,,0.00,meteohub,2013-02-14 02:03:00,
2013-02-13 19:04:00,39.4,12.7,30.04,WNW,292,9.0,18.0,33,0.00,,,0.00,meteohub,2013-02-14 02:04:00,
2013-02-13 19:07:00,39.4,12.7,30.04,NW,310,15.0,18.0,33,0.00,,,0.00,meteohub,2013-02-14 02:07:00,
2013-02-13 19:09:00,39.4,12.7,30.04,NNW,345,9.0,18.0,33,0.00,,,0.00,meteohub,2013-02-14 02:09:00,
2013-02-13 19:10:00,39.4,12.7,30.04,NW,310,9.0,18.0,33,0.00,,,0.00,meteohub,2013-02-14 02:10:00,
2013-02-13 19:13:00,39.4,12.7,30.04,NW,316,8.0,21.0,33,0.00,,,0.00,meteohub,2013-02-14 02:13:00,
2013-02-13 19:15:00,39.6,12.7,30.05,NNW,329,9.0,21.0,33,0.00,,,0.00,meteohub,2013-02-14 02:15:00,
2013-02-13 19:17:00,39.6,12.7,30.05,NW,315,11.0,22.0,33,0.00,,,0.00,meteohub,2013-02-14 02:17:00,
2013-02-13 19:20:00,39.6,12.7,30.05,NNW,346,8.0,22.0,33,0.00,,,0.00,meteohub,2013-02-14 02:20:00,
2013-02-13 19:22:00,39.6,12.7,30.05,NW,311,7.0,22.0,33,0.00,,,0.00,meteohub,2013-02-14 02:22:00,
2013-02-13 19:23:00,39.6,12.7,30.05,NW,307,8.0,22.0,33,0.00,,,0.00,meteohub,2013-02-14 02:23:00,
2013-02-13 19:25:00,39.6,12.7,30.05,NW,304,13.0,22.0,33,0.00,,,0.00,meteohub,2013-02-14 02:25:00,
2013-02-13 19:28:00,39.4,12.7,30.06,NNW,328,9.0,22.0,33,0.00,,,0.00,meteohub,2013-02-14 02:28:00,
2013-02-13 19:30:00,39.4,12.0,30.06,WNW,284,5.0,22.0,32,0.00,,,0.00,meteohub,2013-02-14 02:30:00,
2013-02-13 19:31:00,39.4,12.0,30.06,NW,315,6.0,19.0,32,0.00,,,0.00,meteohub,2013-02-14 02:31:00,
2013-02-13 19:32:00,39.4,12.0,30.06,NW,318,10.0,19.0,32,0.00,,,0.00,meteohub,2013-02-14 02:32:00,
2013-02-13 19:33:00,39.4,12.0,30.06,NNW,327,6.0,19.0,32,0.00,,,0.00,meteohub,2013-02-14 02:33:00,
2013-02-13 19:36:00,39.4,12.0,30.06,WNW,289,9.0,14.0,32,0.00,,,0.00,meteohub,2013-02-14 02:36:00,
2013-02-13 19:37:00,39.4,12.7,30.06,NW,304,11.0,14.0,33,0.00,,,0.00,meteohub,2013-02-14 02:37:00,
2013-02-13 19:38:00,39.2,12.6,30.06,WNW,294,8.0,14.0,33,0.00,,,0.00,meteohub,2013-02-14 02:38:00,
2013-02-13 19:39:00,39.2,12.6,30.06,NW,306,11.0,14.0,33,0.00,,,0.00,meteohub,2013-02-14 02:39:00,
2013-02-13 19:41:00,39.2,12.6,30.06,NW,316,11.0,14.0,33,0.00,,,0.00,meteohub,2013-02-14 02:41:00,
2013-02-13 19:42:00,39.2,12.6,30.06,NNW,348,4.0,14.0,33,0.00,,,0.00,meteohub,2013-02-14 02:42:00,
2013-02-13 19:44:00,39.2,12.6,30.06,NNW,327,5.0,14.0,33,0.00,,,0.00,meteohub,2013-02-14 02:44:00,
2013-02-13 19:46:00,39.0,12.4,30.06,NW,322,6.0,13.0,33,0.00,,,0.00,meteohub,2013-02-14 02:46:00,
2013-02-13 19:47:00,39.0,12.4,30.06,NW,318,3.0,13.0,33,0.00,,,0.00,meteohub,2013-02-14 02:47:00,
2013-02-13 19:50:00,39.0,12.4,30.05,WNW,300,8.0,12.0,33,0.00,,,0.00,meteohub,2013-02-14 02:50:00,
2013-02-13 19:51:00,39.0,12.4,30.05,NNW,327,8.0,12.0,33,0.00,,,0.00,meteohub,2013-02-14 02:51:00,
2013-02-13 19:52:00,39.0,13.1,30.05,West,279,6.0,12.0,34,0.00,,,0.00,meteohub,2013-02-14 02:52:00,
2013-02-13 19:53:00,39.0,13.1,30.05,NNW,329,8.0,12.0,34,0.00,,,0.00,meteohub,2013-02-14 02:53:00,
2013-02-13 19:55:00,39.0,13.1,30.06,NNW,330,5.0,14.0,34,0.00,,,0.00,meteohub,2013-02-14 02:55:00,
2013-02-13 19:58:00,38.8,12.9,30.06,NW,311,9.0,14.0,34,0.00,,,0.00,meteohub,2013-02-14 02:58:00,
2013-02-13 19:59:00,38.8,12.9,30.06,NW,313,8.0,14.0,34,0.00,,,0.00,meteohub,2013-02-14 02:59:00,
2013-02-13 20:01:00,38.8,12.9,30.05,NNW,329,7.0,14.0,34,0.00,,,0.00,meteohub,2013-02-14 03:01:00,
2013-02-13 20:02:00,38.8,12.9,30.05,North,349,3.0,14.0,34,0.00,,,0.00,meteohub,2013-02-14 03:02:00,
2013-02-13 20:04:00,38.8,12.9,30.05,NNW,338,6.0,14.0,34,0.00,,,0.00,meteohub,2013-02-14 03:04:00,
2013-02-13 20:05:00,38.8,12.9,30.05,NNW,344,12.0,14.0,34,0.00,,,0.00,meteohub,2013-02-14 03:05:00,
2013-02-13 20:08:00,39.0,13.1,30.05,NW,311,4.0,15.0,34,0.00,,,0.00,meteohub,2013-02-14 03:08:00,
2013-02-13 20:10:00,39.0,13.1,30.05,WNW,298,8.0,15.0,34,0.00,,,0.00,meteohub,2013-02-14 03:10:00,
2013-02-13 20:11:00,39.0,13.1,30.05,NW,320,10.0,15.0,34,0.00,,,0.00,meteohub,2013-02-14 03:11:00,
2013-02-13 20:12:00,38.8,12.9,30.05,WNW,292,9.0,15.0,34,0.00,,,0.00,meteohub,2013-02-14 03:12:00,
2013-02-13 20:13:00,38.8,12.9,30.05,NW,324,7.0,15.0,34,0.00,,,0.00,meteohub,2013-02-14 03:13:00,
2013-02-13 20:16:00,38.8,12.9,30.05,NNW,339,9.0,15.0,34,0.00,,,0.00,meteohub,2013-02-14 03:16:00,
2013-02-13 20:17:00,38.8,12.9,30.05,WNW,289,7.0,15.0,34,0.00,,,0.00,meteohub,2013-02-14 03:17:00,
2013-02-13 20:18:00,38.7,13.3,30.05,NW,309,14.0,15.0,35,0.00,,,0.00,meteohub,2013-02-14 03:18:00,
2013-02-13 20:19:00,38.7,13.3,30.05,NW,306,7.0,15.0,35,0.00,,,0.00,meteohub,2013-02-14 03:19:00,
2013-02-13 20:21:00,38.7,13.3,30.05,NW,313,5.0,14.0,35,0.00,,,0.00,meteohub,2013-02-14 03:21:00,
2013-02-13 20:23:00,38.7,13.3,30.05,WNW,298,13.0,14.0,35,0.00,,,0.00,meteohub,2013-02-14 03:23:00,
2013-02-13 20:27:00,38.7,13.3,30.05,West,281,8.0,14.0,35,0.00,,,0.00,meteohub,2013-02-14 03:27:00,
2013-02-13 20:29:00,38.5,13.3,30.05,NW,315,5.0,14.0,35,0.00,,,0.00,meteohub,2013-02-14 03:29:00,
2013-02-13 20:30:00,38.5,13.8,30.05,WNW,294,4.0,14.0,36,0.00,,,0.00,meteohub,2013-02-14 03:30:00,
2013-02-13 20:32:00,38.5,13.3,30.05,NW,304,5.0,15.0,35,0.00,,,0.00,meteohub,2013-02-14 03:32:00,
2013-02-13 20:34:00,38.3,13.1,30.05,NW,312,5.0,15.0,35,0.00,,,0.00,meteohub,2013-02-14 03:34:00,
2013-02-13 20:36:00,38.1,12.9,30.04,NW,317,6.0,15.0,35,0.00,,,0.00,meteohub,2013-02-14 03:36:00,
2013-02-13 20:37:00,38.1,12.9,30.04,NW,319,5.0,15.0,35,0.00,,,0.00,meteohub,2013-02-14 03:37:00,
2013-02-13 20:39:00,37.9,12.7,30.05,NW,311,6.0,15.0,35,0.00,,,0.00,meteohub,2013-02-14 03:39:00,
2013-02-13 20:42:00,37.9,12.7,30.05,NW,312,6.0,15.0,35,0.00,,,0.00,meteohub,2013-02-14 03:42:00,
2013-02-13 20:44:00,37.8,13.3,30.04,WNW,296,5.0,15.0,36,0.00,,,0.00,meteohub,2013-02-14 03:44:00,
2013-02-13 20:47:00,37.6,13.1,30.05,WNW,303,6.0,9.0,36,0.00,,,0.00,meteohub,2013-02-14 03:47:00,
2013-02-13 20:49:00,37.6,13.1,30.04,NW,306,4.0,9.0,36,0.00,,,0.00,meteohub,2013-02-14 03:49:00,
2013-02-13 20:52:00,37.2,12.7,30.04,NW,310,4.0,7.0,36,0.00,,,0.00,meteohub,2013-02-14 03:52:00,
2013-02-13 20:54:00,37.2,12.7,30.04,NW,309,8.0,8.0,36,0.00,,,0.00,meteohub,2013-02-14 03:54:00,
2013-02-13 20:55:00,37.0,12.6,30.04,WNW,289,6.0,7.0,36,0.00,,,0.00,meteohub,2013-02-14 03:55:00,
2013-02-13 20:57:00,37.0,12.6,30.04,WNW,302,5.0,8.0,36,0.00,,,0.00,meteohub,2013-02-14 03:57:00,
2013-02-13 20:59:00,36.9,12.4,30.04,NW,310,5.0,8.0,36,0.00,,,0.00,meteohub,2013-02-14 03:59:00,
2013-02-13 21:02:00,36.7,12.9,30.04,NW,309,4.0,8.0,37,0.00,,,0.00,meteohub,2013-02-14 04:02:00,
2013-02-13 21:03:00,36.7,12.9,30.05,NW,311,3.0,8.0,37,0.00,,,0.00,meteohub,2013-02-14 04:03:00,
2013-02-13 21:05:00,36.5,12.7,30.04,NW,312,3.0,8.0,37,0.00,,,0.00,meteohub,2013-02-14 04:05:00,
2013-02-13 21:07:00,36.3,12.6,30.04,NW,313,3.0,9.0,37,0.00,,,0.00,meteohub,2013-02-14 04:07:00,
2013-02-13 21:08:00,36.3,12.6,30.05,NW,313,5.0,9.0,37,0.00,,,0.00,meteohub,2013-02-14 04:08:00,
2013-02-13 21:11:00,36.1,12.4,30.05,NW,308,5.0,9.0,37,0.00,,,0.00,meteohub,2013-02-14 04:11:00,
2013-02-13 21:12:00,36.1,12.4,30.05,NW,321,6.0,9.0,37,0.00,,,0.00,meteohub,2013-02-14 04:12:00,
2013-02-13 21:13:00,36.1,12.4,30.04,NW,317,6.0,9.0,37,0.00,,,0.00,meteohub,2013-02-14 04:13:00,
2013-02-13 21:16:00,36.0,12.7,30.04,NW,309,6.0,8.0,38,0.00,,,0.00,meteohub,2013-02-14 04:16:00,
2013-02-13 21:18:00,35.8,12.7,30.04,NW,325,5.0,8.0,38,0.00,,,0.00,meteohub,2013-02-14 04:18:00,
2013-02-13 21:19:00,35.8,12.7,30.04,WNW,296,3.0,8.0,38,0.00,,,0.00,meteohub,2013-02-14 04:19:00,
2013-02-13 21:22:00,35.8,12.7,30.05,NNW,327,6.0,7.0,38,0.00,,,0.00,meteohub,2013-02-14 04:22:00,
2013-02-13 21:25:00,35.4,12.4,30.05,NW,309,4.0,7.0,38,0.00,,,0.00,meteohub,2013-02-14 04:25:00,
2013-02-13 21:26:00,35.4,12.4,30.05,NW,316,3.0,7.0,38,0.00,,,0.00,meteohub,2013-02-14 04:26:00,
2013-02-13 21:27:00,35.4,12.4,30.05,NW,316,3.0,7.0,38,0.00,,,0.00,meteohub,2013-02-14 04:27:00,
2013-02-13 21:30:00,35.2,12.2,30.05,NW,316,4.0,7.0,38,0.00,,,0.00,meteohub,2013-02-14 04:30:00,
2013-02-13 21:31:00,35.2,12.2,30.05,NW,316,3.0,7.0,38,0.00,,,0.00,meteohub,2013-02-14 04:31:00,
2013-02-13 21:32:00,35.2,12.2,30.05,West,263,3.0,7.0,38,0.00,,,0.00,meteohub,2013-02-14 04:32:00,
2013-02-13 21:36:00,35.1,12.0,30.05,WNW,292,3.0,6.0,38,0.00,,,0.00,meteohub,2013-02-14 04:36:00,
2013-02-13 21:37:00,35.1,12.0,30.05,WNW,292,4.0,6.0,38,0.00,,,0.00,meteohub,2013-02-14 04:37:00,
2013-02-13 21:38:00,35.1,12.0,30.05,NW,306,1.0,6.0,38,0.00,,,0.00,meteohub,2013-02-14 04:38:00,
2013-02-13 21:42:00,35.1,12.0,30.05,NNW,336,2.0,6.0,38,0.00,,,0.00,meteohub,2013-02-14 04:42:00,
2013-02-13 21:43:00,35.1,12.0,30.05,NNW,336,2.0,6.0,38,0.00,,,0.00,meteohub,2013-02-14 04:43:00,
2013-02-13 21:47:00,35.2,12.2,30.04,SSW,205,5.0,6.0,38,0.00,,,0.00,meteohub,2013-02-14 04:47:00,
2013-02-13 21:48:00,35.1,12.0,30.05,South,177,6.0,6.0,38,0.00,,,0.00,meteohub,2013-02-14 04:48:00,
2013-02-13 21:52:00,34.9,12.4,30.05,South,175,6.0,8.0,39,0.00,,,0.00,meteohub,2013-02-14 04:52:00,
2013-02-13 21:53:00,34.9,12.4,30.05,South,169,4.0,8.0,39,0.00,,,0.00,meteohub,2013-02-14 04:53:00,
2013-02-13 21:54:00,34.9,12.4,30.05,SE,143,0.0,8.0,39,0.00,,,0.00,meteohub,2013-02-14 04:54:00,
2013-02-13 21:58:00,34.9,12.4,30.05,SSE,160,4.0,8.0,39,0.00,,,0.00,meteohub,2013-02-14 04:58:00,
2013-02-13 21:59:00,34.9,12.4,30.05,SSE,155,6.0,8.0,39,0.00,,,0.00,meteohub,2013-02-14 04:59:00,
2013-02-13 22:00:00,34.9,12.4,30.05,SSE,168,6.0,8.0,39,0.00,,,0.00,meteohub,2013-02-14 05:00:00,
2013-02-13 22:01:00,34.9,12.4,30.05,SSE,163,6.0,8.0,39,0.00,,,0.00,meteohub,2013-02-14 05:01:00,
2013-02-13 22:06:00,34.9,12.4,30.05,SSE,157,5.0,8.0,39,0.00,,,0.00,meteohub,2013-02-14 05:06:00,
2013-02-13 22:19:00,37.8,12.6,30.04,SSE,156,1.0,9.0,35,0.00,,,0.00,meteohub,2013-02-14 05:19:00,
2013-02-13 22:20:00,37.8,12.6,30.04,SSE,156,1.0,9.0,35,0.00,,,0.00,meteohub,2013-02-14 05:20:00,
2013-02-13 22:22:00,37.8,12.6,30.04,SE,127,4.0,9.0,35,0.00,,,0.00,meteohub,2013-02-14 05:22:00,
2013-02-13 22:25:00,37.4,12.9,30.04,SE,128,5.0,9.0,36,0.00,,,0.00,meteohub,2013-02-14 05:25:00,
2013-02-13 22:26:00,37.2,12.7,30.04,SE,128,5.0,9.0,36,0.00,,,0.00,meteohub,2013-02-14 05:26:00,
2013-02-13 22:27:00,37.2,12.7,30.04,SE,127,5.0,9.0,36,0.00,,,0.00,meteohub,2013-02-14 05:27:00,
2013-02-13 22:28:00,37.0,12.6,30.04,SE,136,2.0,9.0,36,0.00,,,0.00,meteohub,2013-02-14 05:28:00,
2013-02-13 22:32:00,36.7,12.2,30.04,SE,144,1.0,7.0,36,0.00,,,0.00,meteohub,2013-02-14 05:32:00,
2013-02-13 22:33:00,36.7,12.9,30.04,SE,144,1.0,7.0,37,0.00,,,0.00,meteohub,2013-02-14 05:33:00,
2013-02-13 22:37:00,36.3,12.6,30.04,SE,144,0.0,6.0,37,0.00,,,0.00,meteohub,2013-02-14 05:37:00,
2013-02-13 22:38:00,36.3,12.6,30.04,SE,144,0.0,6.0,37,0.00,,,0.00,meteohub,2013-02-14 05:38:00,
2013-02-13 22:39:00,36.1,12.4,30.04,SE,144,0.0,6.0,37,0.00,,,0.00,meteohub,2013-02-14 05:39:00,
2013-02-13 22:40:00,36.1,12.4,30.04,SE,144,0.0,6.0,37,0.00,,,0.00,meteohub,2013-02-14 05:40:00,
2013-02-13 22:43:00,36.0,12.2,30.05,SE,144,1.0,6.0,37,0.00,,,0.00,meteohub,2013-02-14 05:43:00,
2013-02-13 22:44:00,36.0,12.2,30.05,NE,49,3.0,6.0,37,0.00,,,0.00,meteohub,2013-02-14 05:44:00,
2013-02-13 22:46:00,35.8,12.0,30.05,NE,49,1.0,4.0,37,0.00,,,0.00,meteohub,2013-02-14 05:46:00,
2013-02-13 22:48:00,35.4,12.4,30.05,ENE,63,4.0,4.0,38,0.00,,,0.00,meteohub,2013-02-14 05:48:00,
2013-02-13 22:49:00,35.2,12.2,30.05,ENE,63,3.0,4.0,38,0.00,,,0.00,meteohub,2013-02-14 05:49:00,
2013-02-13 22:51:00,35.1,12.6,30.05,ENE,65,4.0,5.0,39,0.00,,,0.00,meteohub,2013-02-14 05:51:00,
2013-02-13 22:52:00,35.1,12.6,30.05,ENE,65,3.0,5.0,39,0.00,,,0.00,meteohub,2013-02-14 05:52:00,
2013-02-13 22:54:00,34.9,12.4,30.05,ENE,65,3.0,5.0,39,0.00,,,0.00,meteohub,2013-02-14 05:54:00,
2013-02-13 22:55:00,34.9,12.4,30.05,ENE,65,3.0,5.0,39,0.00,,,0.00,meteohub,2013-02-14 05:55:00,
2013-02-13 22:57:00,34.7,12.2,30.05,ENE,65,3.0,5.0,39,0.00,,,0.00,meteohub,2013-02-14 05:57:00,
2013-02-13 22:59:00,34.5,12.0,30.05,ENE,76,4.0,5.0,39,0.00,,,0.00,meteohub,2013-02-14 05:59:00,
2013-02-13 23:01:00,34.5,12.7,30.05,East,86,4.0,5.0,40,0.00,,,0.00,meteohub,2013-02-14 06:01:00,
2013-02-13 23:02:00,34.5,12.7,30.05,East,86,3.0,5.0,40,0.00,,,0.00,meteohub,2013-02-14 06:02:00,
2013-02-13 23:05:00,34.7,12.9,30.05,SE,134,7.0,7.0,40,0.00,,,0.00,meteohub,2013-02-14 06:05:00,
2013-02-13 23:06:00,34.7,12.9,30.05,SE,129,6.0,7.0,40,0.00,,,0.00,meteohub,2013-02-14 06:06:00,
2013-02-13 23:07:00,34.9,12.9,30.05,SE,139,6.0,7.0,40,0.00,,,0.00,meteohub,2013-02-14 06:07:00,
2013-02-13 23:08:00,34.9,12.9,30.05,SSE,161,5.0,7.0,40,0.00,,,0.00,meteohub,2013-02-14 06:08:00,
2013-02-13 23:11:00,34.9,12.9,30.05,SSE,154,2.0,8.0,40,0.00,,,0.00,meteohub,2013-02-14 06:11:00,
2013-02-13 23:12:00,34.9,12.9,30.05,SE,142,2.0,8.0,40,0.00,,,0.00,meteohub,2013-02-14 06:12:00,
2013-02-13 23:14:00,34.9,12.4,30.05,ESE,123,4.0,8.0,39,0.00,,,0.00,meteohub,2013-02-14 06:14:00,
2013-02-13 23:15:00,35.1,12.6,30.05,NE,54,4.0,8.0,39,0.00,,,0.00,meteohub,2013-02-14 06:15:00,
2013-02-13 23:18:00,35.1,13.1,30.05,NE,55,0.0,8.0,40,0.00,,,0.00,meteohub,2013-02-14 06:18:00,
2013-02-13 23:20:00,34.9,12.9,30.06,NE,55,2.0,8.0,40,0.00,,,0.00,meteohub,2013-02-14 06:20:00,
2013-02-13 23:21:00,34.9,12.9,30.06,NE,55,2.0,8.0,40,0.00,,,0.00,meteohub,2013-02-14 06:21:00,
2013-02-13 23:23:00,34.9,12.9,30.06,ENE,63,3.0,8.0,40,0.00,,,0.00,meteohub,2013-02-14 06:23:00,
2013-02-13 23:25:00,34.7,12.9,30.05,East,97,6.0,8.0,40,0.00,,,0.00,meteohub,2013-02-14 06:25:00,
2013-02-13 23:26:00,34.7,12.9,30.05,East,99,5.0,6.0,40,0.00,,,0.00,meteohub,2013-02-14 06:26:00,
2013-02-13 23:27:00,34.5,12.7,30.05,East,99,5.0,6.0,40,0.00,,,0.00,meteohub,2013-02-14 06:27:00,
2013-02-13 23:30:00,34.5,12.7,30.05,East,100,4.0,6.0,40,0.00,,,0.00,meteohub,2013-02-14 06:30:00,
2013-02-13 23:31:00,34.5,12.7,30.05,East,100,5.0,6.0,40,0.00,,,0.00,meteohub,2013-02-14 06:31:00,
2013-02-13 23:35:00,34.7,12.9,30.05,East,101,4.0,6.0,40,0.00,,,0.00,meteohub,2013-02-14 06:35:00,
2013-02-13 23:36:00,34.7,12.9,30.06,East,101,4.0,6.0,40,0.00,,,0.00,meteohub,2013-02-14 06:36:00,
2013-02-13 23:38:00,34.9,12.9,30.06,East,101,0.0,6.0,40,0.00,,,0.00,meteohub,2013-02-14 06:38:00,
2013-02-13 23:39:00,34.9,12.9,30.06,NE,37,2.0,6.0,40,0.00,,,0.00,meteohub,2013-02-14 06:39:00,
2013-02-13 23:41:00,34.9,12.9,30.05,NE,40,2.0,6.0,40,0.00,,,0.00,meteohub,2013-02-14 06:41:00,
2013-02-13 23:42:00,34.9,12.9,30.05,NE,40,0.0,6.0,40,0.00,,,0.00,meteohub,2013-02-14 06:42:00,
2013-02-13 23:44:00,34.9,12.9,30.05,NE,40,2.0,6.0,40,0.00,,,0.00,meteohub,2013-02-14 06:44:00,
2013-02-13 23:45:00,34.9,12.9,30.05,NE,40,2.0,6.0,40,0.00,,,0.00,meteohub,2013-02-14 06:45:00,
2013-02-13 23:48:00,34.7,12.9,30.05,NE,40,0.0,6.0,40,0.00,,,0.00,meteohub,2013-02-14 06:48:00,
2013-02-13 23:49:00,34.9,12.9,30.05,NE,40,1.0,6.0,40,0.00,,,0.00,meteohub,2013-02-14 06:49:00,
2013-02-13 23:50:00,34.7,12.9,30.05,NE,40,1.0,6.0,40,0.00,,,0.00,meteohub,2013-02-14 06:50:00,
2013-02-13 23:52:00,34.9,12.4,30.05,NE,40,1.0,5.0,39,0.00,,,0.00,meteohub,2013-02-14 06:52:00,
2013-02-13 23:54:00,34.9,12.4,30.05,NE,40,3.0,5.0,39,0.00,,,0.00,meteohub,2013-02-14 06:54:00,
2013-02-13 23:55:00,34.9,12.4,30.05,NE,44,3.0,5.0,39,0.00,,,0.00,meteohub,2013-02-14 06:55:00,
2013-02-13 23:56:00,34.9,12.4,30.05,ENE,64,3.0,3.0,39,0.00,,,0.00,meteohub,2013-02-14 06:56:00,
2013-02-13 23:59:00,35.1,12.6,30.05,SE,144,4.0,4.0,39,0.00,,,0.00,meteohub,2013-02-14 06:59:00,